Wetterdaten: Freitag, 22.06.2018
Datum Zeit Temp. Aussen Temp. o. S. +5cm Feuchte Auss Luftdruck Regen Sonnenschein Regendauer Solar Windben Empfang
22.06.2018 00:00 11,4 C 10,6 C 11,1 C 76 % 1022,7 hPa 0,0 l/m 0 min 0 min 0 W/m 15,8 km/h (3 Bft) 95,65 %
22.06.2018 00:02 11,4 C 10,6 C 11,1 C 76 % 1022,7 hPa 0,0 l/m 0 min 0 min 0 W/m 18,0 km/h (3 Bft) 94,44 %
22.06.2018 00:04 11,4 C 10,6 C 11,1 C 76 % 1022,7 hPa 0,0 l/m 0 min 0 min 0 W/m 15,8 km/h (3 Bft) 97,87 %
22.06.2018 00:08 11,3 C 10,6 C 10,6 C 76 % 1022,6 hPa 0,0 l/m 0 min 0 min 0 W/m 11,3 km/h (2 Bft) 97,94 %
22.06.2018 00:10 11,3 C 10,6 C 10,6 C 76 % 1022,6 hPa 0,0 l/m 0 min 0 min 0 W/m 15,8 km/h (3 Bft) 100,00 %
22.06.2018 00:12 11,3 C 10,6 C 10,6 C 77 % 1022,6 hPa 0,0 l/m 0 min 0 min 0 W/m 6,8 km/h (2 Bft) 97,87 %
22.06.2018 00:14 11,3 C 10,6 C 10,6 C 77 % 1022,6 hPa 0,0 l/m 0 min 0 min 0 W/m 4,5 km/h (1 Bft) 100,00 %
22.06.2018 00:16 11,3 C 10,6 C 10,6 C 77 % 1022,5 hPa 0,0 l/m 0 min 0 min 0 W/m 6,8 km/h (2 Bft) 97,87 %
22.06.2018 00:18 11,3 C 10,0 C 10,6 C 77 % 1022,6 hPa 0,0 l/m 0 min 0 min 0 W/m 4,5 km/h (1 Bft) 100,00 %
22.06.2018 00:20 11,2 C 10,0 C 10,6 C 77 % 1022,6 hPa 0,0 l/m 0 min 0 min 0 W/m 4,5 km/h (1 Bft) 100,00 %
22.06.2018 00:22 11,2 C 10,0 C 10,6 C 77 % 1022,7 hPa 0,0 l/m 0 min 0 min 0 W/m 4,5 km/h (1 Bft) 97,87 %
22.06.2018 00:24 11,2 C 10,0 C 10,6 C 78 % 1022,6 hPa 0,0 l/m 0 min 0 min 0 W/m 6,8 km/h (2 Bft) 97,83 %
22.06.2018 00:26 11,2 C 10,0 C 10,6 C 78 % 1022,6 hPa 0,0 l/m 0 min 0 min 0 W/m 9,0 km/h (2 Bft) 100,00 %
22.06.2018 00:28 11,1 C 10,0 C 10,6 C 78 % 1022,6 hPa 0,0 l/m 0 min 0 min 0 W/m 9,0 km/h (2 Bft) 97,87 %
22.06.2018 00:30 11,1 C 10,0 C 10,6 C 78 % 1022,6 hPa 0,0 l/m 0 min 0 min 0 W/m 6,8 km/h (2 Bft) 100,00 %
22.06.2018 00:32 11,1 C 10,0 C 10,6 C 78 % 1022,6 hPa 0,0 l/m 0 min 0 min 0 W/m 11,3 km/h (2 Bft) 97,87 %
22.06.2018 00:34 11,0 C 10,0 C 10,6 C 79 % 1022,6 hPa 0,0 l/m 0 min 0 min 0 W/m 11,3 km/h (2 Bft) 100,00 %
22.06.2018 00:36 10,9 C 10,0 C 10,6 C 78 % 1022,6 hPa 0,0 l/m 0 min 0 min 0 W/m 6,8 km/h (2 Bft) 97,87 %
22.06.2018 00:38 10,9 C 10,0 C 10,6 C 79 % 1022,6 hPa 0,0 l/m 0 min 0 min 0 W/m 6,8 km/h (2 Bft) 100,00 %
22.06.2018 00:40 10,9 C 10,0 C 10,0 C 79 % 1022,7 hPa 0,0 l/m 0 min 0 min 0 W/m 4,5 km/h (1 Bft) 100,00 %
22.06.2018 00:42 10,9 C 10,0 C 10,0 C 79 % 1022,6 hPa 0,0 l/m 0 min 0 min 0 W/m 6,8 km/h (2 Bft) 97,87 %
22.06.2018 00:44 10,8 C 10,0 C 10,0 C 79 % 1022,6 hPa 0,0 l/m 0 min 0 min 0 W/m 4,5 km/h (1 Bft) 97,87 %
22.06.2018 00:46 10,8 C 10,0 C 10,0 C 79 % 1022,6 hPa 0,0 l/m 0 min 0 min 0 W/m 4,5 km/h (1 Bft) 100,00 %
22.06.2018 00:48 10,8 C 10,0 C 10,0 C 79 % 1022,6 hPa 0,0 l/m 0 min 0 min 0 W/m 4,5 km/h (1 Bft) 100,00 %
22.06.2018 00:50 10,7 C 10,0 C 10,0 C 79 % 1022,6 hPa 0,0 l/m 0 min 0 min 0 W/m 6,8 km/h (2 Bft) 100,00 %
22.06.2018 00:52 10,7 C 9,4 C 10,0 C 79 % 1022,6 hPa 0,0 l/m 0 min 0 min 0 W/m 2,3 km/h (1 Bft) 100,00 %
22.06.2018 00:54 10,7 C 9,4 C 10,0 C 79 % 1022,7 hPa 0,0 l/m 0 min 0 min 0 W/m 2,3 km/h (1 Bft) 97,87 %
22.06.2018 00:56 10,7 C 9,4 C 10,0 C 79 % 1022,7 hPa 0,0 l/m 0 min 0 min 0 W/m 2,3 km/h (1 Bft) 100,00 %
22.06.2018 00:58 10,7 C 9,4 C 10,0 C 79 % 1022,6 hPa 0,0 l/m 0 min 0 min 0 W/m 4,5 km/h (1 Bft) 100,00 %
22.06.2018 01:00 10,6 C 9,4 C 10,0 C 79 % 1022,6 hPa 0,0 l/m 0 min 0 min 0 W/m 2,3 km/h (1 Bft) 100,00 %
22.06.2018 01:02 10,6 C 9,4 C 10,0 C 79 % 1022,6 hPa 0,0 l/m 0 min 0 min 0 W/m 4,5 km/h (1 Bft) 100,00 %
22.06.2018 01:04 10,6 C 9,4 C 10,0 C 79 % 1022,6 hPa 0,0 l/m 0 min 0 min 0 W/m 4,5 km/h (1 Bft) 100,00 %
22.06.2018 01:08 10,5 C 9,4 C 10,0 C 79 % 1022,5 hPa 0,0 l/m 0 min 0 min 0 W/m 4,5 km/h (1 Bft) 100,00 %
22.06.2018 01:10 10,5 C 9,4 C 10,0 C 80 % 1022,6 hPa 0,0 l/m 0 min 0 min 0 W/m 9,0 km/h (2 Bft) 100,00 %
22.06.2018 01:12 10,4 C 9,4 C 10,0 C 80 % 1022,5 hPa 0,0 l/m 0 min 0 min 0 W/m 4,5 km/h (1 Bft) 100,00 %
22.06.2018 01:14 10,4 C 9,4 C 10,0 C 80 % 1022,6 hPa 0,0 l/m 0 min 0 min 0 W/m 4,5 km/h (1 Bft) 100,00 %
22.06.2018 01:16 10,4 C 9,4 C 10,0 C 80 % 1022,5 hPa 0,0 l/m 0 min 0 min 0 W/m 2,3 km/h (1 Bft) 100,00 %
22.06.2018 01:18 10,4 C 9,4 C 10,0 C 80 % 1022,4 hPa 0,0 l/m 0 min 0 min 0 W/m 2,3 km/h (1 Bft) 100,00 %
22.06.2018 01:20 10,4 C 9,4 C 10,0 C 80 % 1022,5 hPa 0,0 l/m 0 min 0 min 0 W/m 2,3 km/h (1 Bft) 100,00 %
22.06.2018 01:22 10,3 C 9,4 C 10,0 C 80 % 1022,5 hPa 0,0 l/m 0 min 0 min 0 W/m 2,3 km/h (1 Bft) 100,00 %
22.06.2018 01:24 10,3 C 9,4 C 10,0 C 80 % 1022,5 hPa 0,0 l/m 0 min 0 min 0 W/m 2,3 km/h (1 Bft) 97,87 %
22.06.2018 01:26 10,3 C 9,4 C 10,0 C 80 % 1022,5 hPa 0,0 l/m 0 min 0 min 0 W/m 4,5 km/h (1 Bft) 97,87 %
22.06.2018 01:28 10,3 C 9,4 C 10,0 C 80 % 1022,4 hPa 0,0 l/m 0 min 0 min 0 W/m 4,5 km/h (1 Bft) 100,00 %
22.06.2018 01:30 10,3 C 9,4 C 10,0 C 80 % 1022,5 hPa 0,0 l/m 0 min 0 min 0 W/m 2,3 km/h (1 Bft) 100,00 %
22.06.2018 01:32 10,3 C 9,4 C 10,0 C 80 % 1022,5 hPa 0,0 l/m 0 min 0 min 0 W/m 6,8 km/h (2 Bft) 97,83 %
22.06.2018 01:34 10,3 C 9,4 C 10,0 C 80 % 1022,5 hPa 0,0 l/m 0 min 0 min 0 W/m 6,8 km/h (2 Bft) 97,87 %
22.06.2018 01:38 10,3 C 9,4 C 10,0 C 81 % 1022,4 hPa 0,0 l/m 0 min 0 min 0 W/m 6,8 km/h (2 Bft) 100,00 %
22.06.2018 01:40 10,3 C 9,4 C 10,0 C 81 % 1022,5 hPa 0,0 l/m 0 min 0 min 0 W/m 4,5 km/h (1 Bft) 97,87 %
22.06.2018 01:42 10,2 C 9,4 C 10,0 C 81 % 1022,6 hPa 0,0 l/m 0 min 0 min 0 W/m 9,0 km/h (2 Bft) 97,87 %
22.06.2018 01:44 10,3 C 9,4 C 10,0 C 81 % 1022,5 hPa 0,0 l/m 0 min 0 min 0 W/m 6,8 km/h (2 Bft) 97,83 %
22.06.2018 01:46 10,3 C 9,4 C 10,0 C 81 % 1022,5 hPa 0,0 l/m 0 min 0 min 0 W/m 9,0 km/h (2 Bft) 97,87 %
22.06.2018 01:48 10,2 C 9,4 C 10,0 C 81 % 1022,6 hPa 0,0 l/m 0 min 0 min 0 W/m 4,5 km/h (1 Bft) 97,87 %
22.06.2018 01:50 10,2 C 10,0 C 10,0 C 81 % 1022,5 hPa 0,0 l/m 0 min 0 min 0 W/m 6,8 km/h (2 Bft) 97,87 %
22.06.2018 01:52 10,2 C 10,0 C 10,0 C 81 % 1022,5 hPa 0,0 l/m 0 min 0 min 0 W/m 9,0 km/h (2 Bft) 97,87 %
22.06.2018 01:54 10,3 C 10,0 C 10,0 C 81 % 1022,4 hPa 0,0 l/m 0 min 0 min 0 W/m 4,5 km/h (1 Bft) 97,87 %
22.06.2018 01:56 10,3 C 9,4 C 10,0 C 81 % 1022,5 hPa 0,0 l/m 0 min 0 min 0 W/m 4,5 km/h (1 Bft) 95,65 %
22.06.2018 01:58 10,2 C 9,4 C 10,0 C 81 % 1022,5 hPa 0,0 l/m 0 min 0 min 0 W/m 2,3 km/h (1 Bft) 93,62 %
22.06.2018 02:00 10,3 C 10,0 C 10,0 C 81 % 1022,5 hPa 0,0 l/m 0 min 0 min 0 W/m 2,3 km/h (1 Bft) 95,74 %
22.06.2018 02:02 10,3 C 10,0 C 10,0 C 81 % 1022,3 hPa 0,0 l/m 0 min 0 min 0 W/m 2,3 km/h (1 Bft) 97,87 %
22.06.2018 02:04 10,3 C 10,0 C 10,0 C 81 % 1022,3 hPa 0,0 l/m 0 min 0 min 0 W/m 4,5 km/h (1 Bft) 100,00 %
22.06.2018 02:08 10,3 C 10,0 C 10,6 C 81 % 1022,3 hPa 0,0 l/m 0 min 0 min 0 W/m 6,8 km/h (2 Bft) 96,88 %
22.06.2018 02:10 10,3 C 10,0 C 10,6 C 81 % 1022,4 hPa 0,0 l/m 0 min 0 min 0 W/m 6,8 km/h (2 Bft) 95,74 %
22.06.2018 02:12 10,3 C 10,0 C 10,6 C 81 % 1022,3 hPa 0,0 l/m 0 min 0 min 0 W/m 6,8 km/h (2 Bft) 95,74 %
22.06.2018 02:14 10,4 C 10,0 C 10,6 C 80 % 1022,3 hPa 0,0 l/m 0 min 0 min 0 W/m 4,5 km/h (1 Bft) 93,62 %
22.06.2018 02:16 10,4 C 10,6 C 10,6 C 80 % 1022,3 hPa 0,0 l/m 0 min 0 min 0 W/m 4,5 km/h (1 Bft) 93,62 %
22.06.2018 02:18 10,4 C 10,6 C 10,6 C 80 % 1022,4 hPa 0,0 l/m 0 min 0 min 0 W/m 4,5 km/h (1 Bft) 95,65 %
22.06.2018 02:20 10,4 C 10,6 C 10,6 C 80 % 1022,2 hPa 0,0 l/m 0 min 0 min 0 W/m 9,0 km/h (2 Bft) 95,74 %
22.06.2018 02:22 10,4 C 10,6 C 10,6 C 80 % 1022,3 hPa 0,0 l/m 0 min 0 min 0 W/m 6,8 km/h (2 Bft) 93,62 %
22.06.2018 02:24 10,5 C 10,6 C 10,6 C 80 % 1022,3 hPa 0,0 l/m 0 min 0 min 0 W/m 6,8 km/h (2 Bft) 97,87 %
22.06.2018 02:26 10,5 C 10,6 C 10,6 C 80 % 1022,3 hPa 0,0 l/m 0 min 0 min 0 W/m 6,8 km/h (2 Bft) 97,87 %
22.06.2018 02:28 10,6 C 10,6 C 10,6 C 80 % 1022,3 hPa 0,0 l/m 0 min 0 min 0 W/m 4,5 km/h (1 Bft) 95,74 %
22.06.2018 02:30 10,6 C 10,6 C 10,6 C 80 % 1022,2 hPa 0,0 l/m 0 min 0 min 0 W/m 4,5 km/h (1 Bft) 97,83 %
22.06.2018 02:32 10,6 C 10,6 C 10,6 C 80 % 1022,2 hPa 0,0 l/m 0 min 0 min 0 W/m 4,5 km/h (1 Bft) 97,87 %
22.06.2018 02:34 10,6 C 10,6 C 10,6 C 80 % 1022,2 hPa 0,0 l/m 0 min 0 min 0 W/m 6,8 km/h (2 Bft) 95,74 %
22.06.2018 02:36 10,6 C 10,6 C 10,6 C 80 % 1022,1 hPa 0,0 l/m 0 min 0 min 0 W/m 6,8 km/h (2 Bft) 97,87 %
22.06.2018 02:38 10,7 C 10,6 C 10,6 C 79 % 1022,1 hPa 0,0 l/m 0 min 0 min 0 W/m 6,8 km/h (2 Bft) 97,87 %
22.06.2018 02:40 10,7 C 10,6 C 10,6 C 79 % 1022,2 hPa 0,0 l/m 0 min 0 min 0 W/m 13,5 km/h (3 Bft) 97,87 %
22.06.2018 02:42 10,7 C 10,6 C 10,6 C 79 % 1022,2 hPa 0,0 l/m 0 min 0 min 0 W/m 6,8 km/h (2 Bft) 97,83 %
22.06.2018 02:44 10,7 C 10,6 C 10,6 C 79 % 1022,1 hPa 0,0 l/m 0 min 0 min 0 W/m 6,8 km/h (2 Bft) 95,74 %
22.06.2018 02:46 10,7 C 10,6 C 10,6 C 79 % 1022,0 hPa 0,0 l/m 0 min 0 min 0 W/m 4,5 km/h (1 Bft) 95,74 %
22.06.2018 02:48 10,7 C 10,0 C 10,6 C 79 % 1022,0 hPa 0,0 l/m 0 min 0 min 0 W/m 11,3 km/h (2 Bft) 97,87 %
22.06.2018 02:50 10,7 C 10,0 C 10,6 C 79 % 1022,0 hPa 0,0 l/m 0 min 0 min 0 W/m 9,0 km/h (2 Bft) 95,74 %
22.06.2018 02:52 10,7 C 10,0 C 10,6 C 79 % 1022,0 hPa 0,0 l/m 0 min 0 min 0 W/m 4,5 km/h (1 Bft) 95,83 %
22.06.2018 02:54 10,7 C 10,0 C 10,6 C 79 % 1021,9 hPa 0,0 l/m 0 min 0 min 0 W/m 11,3 km/h (2 Bft) 97,83 %
22.06.2018 02:56 10,7 C 10,0 C 10,0 C 79 % 1022,0 hPa 0,0 l/m 0 min 0 min 0 W/m 6,8 km/h (2 Bft) 97,87 %
22.06.2018 02:58 10,7 C 10,0 C 10,0 C 79 % 1021,9 hPa 0,0 l/m 0 min 0 min 0 W/m 6,8 km/h (2 Bft) 100,00 %
22.06.2018 03:00 10,6 C 10,0 C 10,0 C 79 % 1022,0 hPa 0,0 l/m 0 min 0 min 0 W/m 6,8 km/h (2 Bft) 97,87 %
22.06.2018 03:02 10,6 C 10,0 C 10,0 C 79 % 1022,0 hPa 0,0 l/m 0 min 0 min 0 W/m 6,8 km/h (2 Bft) 100,00 %
22.06.2018 03:04 10,6 C 10,0 C 10,0 C 79 % 1022,0 hPa 0,0 l/m 0 min 0 min 0 W/m 9,0 km/h (2 Bft) 100,00 %
22.06.2018 03:06 10,6 C 10,0 C 10,0 C 79 % 1021,9 hPa 0,0 l/m 0 min 0 min 0 W/m 6,8 km/h (2 Bft) 95,74 %
22.06.2018 03:08 10,6 C 9,4 C 10,0 C 79 % 1021,9 hPa 0,0 l/m 0 min 0 min 0 W/m 4,5 km/h (1 Bft) 97,87 %
22.06.2018 03:10 10,5 C 9,4 C 10,0 C 79 % 1021,9 hPa 0,0 l/m 0 min 0 min 0 W/m 6,8 km/h (2 Bft) 100,00 %
22.06.2018 03:12 10,5 C 9,4 C 10,0 C 79 % 1021,9 hPa 0,0 l/m 0 min 0 min 0 W/m 2,3 km/h (1 Bft) 100,00 %
22.06.2018 03:14 10,5 C 9,4 C 10,0 C 79 % 1021,9 hPa 0,0 l/m 0 min 0 min 0 W/m 6,8 km/h (2 Bft) 100,00 %
22.06.2018 03:16 10,4 C 9,4 C 10,0 C 80 % 1022,0 hPa 0,0 l/m 0 min 0 min 0 W/m 6,8 km/h (2 Bft) 97,83 %
22.06.2018 03:18 10,4 C 10,0 C 10,0 C 80 % 1022,0 hPa 0,0 l/m 0 min 0 min 0 W/m 11,3 km/h (2 Bft) 97,87 %
22.06.2018 03:20 10,4 C 9,4 C 10,0 C 80 % 1021,9 hPa 0,0 l/m 0 min 0 min 0 W/m 6,8 km/h (2 Bft) 97,87 %
22.06.2018 03:22 10,4 C 9,4 C 10,0 C 80 % 1022,0 hPa 0,0 l/m 0 min 0 min 0 W/m 4,5 km/h (1 Bft) 100,00 %
22.06.2018 03:24 10,3 C 9,4 C 10,0 C 80 % 1021,9 hPa 0,0 l/m 0 min 0 min 0 W/m 4,5 km/h (1 Bft) 100,00 %
22.06.2018 03:26 10,3 C 9,4 C 10,0 C 80 % 1021,8 hPa 0,0 l/m 0 min 0 min 0 W/m 9,0 km/h (2 Bft) 100,00 %
22.06.2018 03:28 10,3 C 9,4 C 10,0 C 80 % 1021,8 hPa 0,0 l/m 0 min 0 min 0 W/m 6,8 km/h (2 Bft) 100,00 %
22.06.2018 03:30 10,3 C 9,4 C 10,0 C 80 % 1021,8 hPa 0,0 l/m 0 min 0 min 0 W/m 9,0 km/h (2 Bft) 100,00 %
22.06.2018 03:32 10,3 C 9,4 C 10,0 C 80 % 1021,9 hPa 0,0 l/m 0 min 0 min 0 W/m 9,0 km/h (2 Bft) 100,00 %
22.06.2018 03:34 10,3 C 10,0 C 10,0 C 80 % 1021,9 hPa 0,0 l/m 0 min 0 min 0 W/m 6,8 km/h (2 Bft) 100,00 %
22.06.2018 03:36 10,3 C 10,0 C 10,0 C 80 % 1021,9 hPa 0,0 l/m 0 min 0 min 0 W/m 11,3 km/h (2 Bft) 100,00 %
22.06.2018 03:38 10,3 C 10,0 C 10,0 C 80 % 1021,9 hPa 0,0 l/m 0 min 0 min 0 W/m 6,8 km/h (2 Bft) 97,87 %
22.06.2018 03:40 10,2 C 10,0 C 10,0 C 81 % 1021,9 hPa 0,0 l/m 0 min 0 min 0 W/m 6,8 km/h (2 Bft) 97,83 %
22.06.2018 03:42 10,2 C 10,0 C 10,0 C 81 % 1022,0 hPa 0,0 l/m 0 min 0 min 0 W/m 6,8 km/h (2 Bft) 97,87 %
22.06.2018 03:44 10,2 C 10,0 C 10,0 C 81 % 1021,9 hPa 0,0 l/m 0 min 0 min 0 W/m 9,0 km/h (2 Bft) 95,74 %
22.06.2018 03:46 10,2 C 9,4 C 10,0 C 81 % 1021,8 hPa 0,0 l/m 0 min 0 min 0 W/m 2,3 km/h (1 Bft) 97,87 %
22.06.2018 03:48 10,2 C 9,4 C 10,0 C 81 % 1021,9 hPa 0,0 l/m 0 min 0 min 0 W/m 11,3 km/h (2 Bft) 97,87 %
22.06.2018 03:50 10,2 C 9,4 C 10,0 C 81 % 1021,9 hPa 0,0 l/m 0 min 0 min 0 W/m 6,8 km/h (2 Bft) 95,74 %
22.06.2018 03:52 10,2 C 9,4 C 10,0 C 81 % 1021,8 hPa 0,0 l/m 0 min 0 min 0 W/m 6,8 km/h (2 Bft) 97,83 %
22.06.2018 03:54 10,2 C 9,4 C 10,0 C 81 % 1021,8 hPa 0,0 l/m 0 min 0 min 0 W/m 6,8 km/h (2 Bft) 97,87 %
22.06.2018 03:56 10,2 C 9,4 C 10,0 C 81 % 1021,9 hPa 0,0 l/m 0 min 0 min 0 W/m 6,8 km/h (2 Bft) 97,87 %
22.06.2018 03:58 10,2 C 9,4 C 10,0 C 81 % 1021,8 hPa 0,0 l/m 0 min 0 min 0 W/m 6,8 km/h (2 Bft) 95,74 %
22.06.2018 04:00 10,2 C 9,4 C 10,0 C 81 % 1021,8 hPa 0,0 l/m 0 min 0 min 0 W/m 6,8 km/h (2 Bft) 95,74 %
22.06.2018 04:02 10,2 C 9,4 C 10,0 C 81 % 1021,7 hPa 0,0 l/m 0 min 0 min 0 W/m 6,8 km/h (2 Bft) 100,00 %
22.06.2018 04:04 10,2 C 9,4 C 10,0 C 81 % 1021,7 hPa 0,0 l/m 0 min 0 min 0 W/m 11,3 km/h (2 Bft) 100,00 %
22.06.2018 04:06 10,2 C 9,4 C 10,0 C 81 % 1021,7 hPa 0,0 l/m 0 min 0 min 0 W/m 9,0 km/h (2 Bft) 95,74 %
22.06.2018 04:08 10,2 C 9,4 C 10,0 C 81 % 1021,7 hPa 0,0 l/m 0 min 0 min 0 W/m 11,3 km/h (2 Bft) 100,00 %
22.06.2018 04:10 10,2 C 9,4 C 10,0 C 81 % 1021,6 hPa 0,0 l/m 0 min 0 min 0 W/m 4,5 km/h (1 Bft) 93,62 %
22.06.2018 04:12 10,2 C 9,4 C 10,0 C 81 % 1021,7 hPa 0,0 l/m 0 min 0 min 0 W/m 11,3 km/h (2 Bft) 95,74 %
22.06.2018 04:14 10,2 C 10,0 C 10,0 C 81 % 1021,8 hPa 0,0 l/m 0 min 0 min 0 W/m 6,8 km/h (2 Bft) 95,65 %
22.06.2018 04:16 10,2 C 10,0 C 10,0 C 81 % 1021,8 hPa 0,0 l/m 0 min 0 min 0 W/m 6,8 km/h (2 Bft) 95,74 %
22.06.2018 04:18 10,2 C 9,4 C 10,0 C 81 % 1021,7 hPa 0,0 l/m 0 min 0 min 0 W/m 6,8 km/h (2 Bft) 95,74 %
22.06.2018 04:20 10,2 C 9,4 C 10,0 C 81 % 1021,7 hPa 0,0 l/m 0 min 0 min 0 W/m 9,0 km/h (2 Bft) 93,62 %
22.06.2018 04:22 10,2 C 9,4 C 10,0 C 81 % 1021,8 hPa 0,0 l/m 0 min 0 min 0 W/m 11,3 km/h (2 Bft) 93,62 %
22.06.2018 04:24 10,2 C 9,4 C 10,0 C 81 % 1021,8 hPa 0,0 l/m 0 min 0 min 0 W/m 11,3 km/h (2 Bft) 95,74 %
22.06.2018 04:26 10,2 C 9,4 C 10,0 C 81 % 1021,8 hPa 0,0 l/m 0 min 0 min 0 W/m 9,0 km/h (2 Bft) 95,65 %
22.06.2018 04:28 10,2 C 9,4 C 10,0 C 81 % 1021,7 hPa 0,0 l/m 0 min 0 min 0 W/m 6,8 km/h (2 Bft) 93,62 %
22.06.2018 04:30 10,1 C 9,4 C 9,4 C 81 % 1021,7 hPa 0,0 l/m 0 min 0 min 0 W/m 9,0 km/h (2 Bft) 95,74 %
22.06.2018 04:32 10,1 C 9,4 C 10,0 C 81 % 1021,7 hPa 0,0 l/m 0 min 0 min 0 W/m 9,0 km/h (2 Bft) 95,74 %
22.06.2018 04:34 10,1 C 9,4 C 10,0 C 82 % 1021,7 hPa 0,0 l/m 0 min 0 min 0 W/m 6,8 km/h (2 Bft) 93,62 %
22.06.2018 04:36 10,1 C 9,4 C 9,4 C 82 % 1021,7 hPa 0,0 l/m 0 min 0 min 0 W/m 15,8 km/h (3 Bft) 95,74 %
22.06.2018 04:38 10,1 C 9,4 C 9,4 C 82 % 1021,8 hPa 0,0 l/m 0 min 0 min 0 W/m 4,5 km/h (1 Bft) 95,65 %
22.06.2018 04:40 10,0 C 9,4 C 10,0 C 82 % 1021,8 hPa 0,0 l/m 0 min 0 min 0 W/m 6,8 km/h (2 Bft) 95,74 %
22.06.2018 04:42 10,0 C 9,4 C 9,4 C 82 % 1021,7 hPa 0,0 l/m 0 min 0 min 0 W/m 13,5 km/h (3 Bft) 91,49 %
22.06.2018 04:44 10,0 C 9,4 C 9,4 C 82 % 1021,8 hPa 0,0 l/m 0 min 0 min 0 W/m 6,8 km/h (2 Bft) 95,74 %
22.06.2018 04:46 10,0 C 9,4 C 9,4 C 82 % 1021,7 hPa 0,0 l/m 0 min 0 min 0 W/m 6,8 km/h (2 Bft) 93,62 %
22.06.2018 04:48 9,9 C 9,4 C 9,4 C 82 % 1021,7 hPa 0,0 l/m 0 min 0 min 0 W/m 6,8 km/h (2 Bft) 95,74 %
22.06.2018 04:50 9,9 C 9,4 C 9,4 C 82 % 1021,6 hPa 0,0 l/m 0 min 0 min 0 W/m 6,8 km/h (2 Bft) 93,48 %
22.06.2018 04:52 9,9 C 9,4 C 9,4 C 82 % 1021,7 hPa 0,0 l/m 0 min 0 min 0 W/m 11,3 km/h (2 Bft) 97,87 %
22.06.2018 04:54 9,9 C 9,4 C 9,4 C 82 % 1021,7 hPa 0,0 l/m 0 min 0 min 0 W/m 11,3 km/h (2 Bft) 97,87 %
22.06.2018 04:56 9,9 C 9,4 C 9,4 C 82 % 1021,7 hPa 0,0 l/m 0 min 0 min 0 W/m 6,8 km/h (2 Bft) 100,00 %
22.06.2018 04:58 9,9 C 9,4 C 9,4 C 82 % 1021,7 hPa 0,0 l/m 0 min 0 min 0 W/m 6,8 km/h (2 Bft) 100,00 %
22.06.2018 05:00 9,9 C 9,4 C 9,4 C 83 % 1021,7 hPa 0,0 l/m 0 min 0 min 0 W/m 4,5 km/h (1 Bft) 100,00 %
22.06.2018 05:02 9,9 C 9,4 C 9,4 C 83 % 1021,7 hPa 0,0 l/m 0 min 0 min 0 W/m 4,5 km/h (1 Bft) 95,65 %
22.06.2018 05:04 9,9 C 9,4 C 9,4 C 83 % 1021,7 hPa 0,0 l/m 0 min 0 min 0 W/m 9,0 km/h (2 Bft) 100,00 %
22.06.2018 05:06 9,8 C 9,4 C 9,4 C 83 % 1021,7 hPa 0,0 l/m 0 min 0 min 0 W/m 6,8 km/h (2 Bft) 100,00 %
22.06.2018 05:08 9,8 C 9,4 C 9,4 C 83 % 1021,7 hPa 0,0 l/m 0 min 0 min 0 W/m 9,0 km/h (2 Bft) 100,00 %
22.06.2018 05:10 9,8 C 9,4 C 9,4 C 83 % 1021,7 hPa 0,0 l/m 0 min 0 min 0 W/m 9,0 km/h (2 Bft) 100,00 %
22.06.2018 05:12 9,8 C 9,4 C 9,4 C 83 % 1021,7 hPa 0,0 l/m 0 min 0 min 0 W/m 6,8 km/h (2 Bft) 97,83 %
22.06.2018 05:14 9,8 C 9,4 C 9,4 C 83 % 1021,7 hPa 0,0 l/m 0 min 0 min 0 W/m 6,8 km/h (2 Bft) 97,87 %
22.06.2018 05:16 9,8 C 9,4 C 9,4 C 83 % 1021,8 hPa 0,0 l/m 0 min 0 min 0 W/m 6,8 km/h (2 Bft) 97,87 %
22.06.2018 05:18 9,8 C 9,4 C 9,4 C 83 % 1021,7 hPa 0,0 l/m 0 min 0 min 4 W/m 4,5 km/h (1 Bft) 97,87 %
22.06.2018 05:20 9,8 C 9,4 C 9,4 C 83 % 1021,8 hPa 0,0 l/m 0 min 0 min 5 W/m 6,8 km/h (2 Bft) 97,87 %
22.06.2018 05:22 9,8 C 9,4 C 9,4 C 83 % 1021,8 hPa 0,0 l/m 0 min 0 min 5 W/m 4,5 km/h (1 Bft) 95,83 %
22.06.2018 05:24 9,8 C 9,4 C 10,0 C 83 % 1021,7 hPa 0,0 l/m 0 min 0 min 5 W/m 6,8 km/h (2 Bft) 97,83 %
22.06.2018 05:26 9,8 C 9,4 C 9,4 C 83 % 1021,7 hPa 0,0 l/m 0 min 0 min 5 W/m 4,5 km/h (1 Bft) 97,87 %
22.06.2018 05:28 9,8 C 9,4 C 9,4 C 83 % 1021,7 hPa 0,0 l/m 0 min 0 min 7 W/m 11,3 km/h (2 Bft) 95,74 %
22.06.2018 05:30 9,8 C 9,4 C 9,4 C 83 % 1021,7 hPa 0,0 l/m 0 min 0 min 7 W/m 6,8 km/h (2 Bft) 97,87 %
22.06.2018 05:32 9,8 C 9,4 C 9,4 C 83 % 1021,7 hPa 0,0 l/m 0 min 0 min 8 W/m 6,8 km/h (2 Bft) 97,87 %
22.06.2018 05:34 9,8 C 9,4 C 9,4 C 83 % 1021,7 hPa 0,0 l/m 0 min 0 min 9 W/m 6,8 km/h (2 Bft) 97,87 %
22.06.2018 05:35 9,8 C 9,4 C 9,4 C 83 % 1021,7 hPa 0,0 l/m 0 min 0 min 9 W/m 6,8 km/h (2 Bft) 100,00 %
22.06.2018 05:40 9,8 C 9,4 C 10,0 C 84 % 1021,7 hPa 0,0 l/m 0 min 0 min 9 W/m 4,5 km/h (1 Bft) 95,74 %
22.06.2018 05:42 9,8 C 9,4 C 10,0 C 84 % 1021,7 hPa 0,0 l/m 0 min 0 min 11 W/m 6,8 km/h (2 Bft) 97,87 %
22.06.2018 05:44 9,8 C 9,4 C 9,4 C 84 % 1021,5 hPa 0,0 l/m 0 min 0 min 11 W/m 9,0 km/h (2 Bft) 97,87 %
22.06.2018 05:46 9,8 C 9,4 C 9,4 C 84 % 1021,6 hPa 0,0 l/m 0 min 0 min 11 W/m 6,8 km/h (2 Bft) 97,87 %
22.06.2018 05:48 9,8 C 9,4 C 9,4 C 84 % 1021,6 hPa 0,0 l/m 0 min 0 min 11 W/m 4,5 km/h (1 Bft) 95,74 %
22.06.2018 05:50 9,8 C 9,4 C 9,4 C 84 % 1021,6 hPa 0,0 l/m 0 min 0 min 11 W/m 4,5 km/h (1 Bft) 97,83 %
22.06.2018 05:52 9,8 C 9,4 C 9,4 C 84 % 1021,6 hPa 0,0 l/m 0 min 0 min 12 W/m 6,8 km/h (2 Bft) 98,00 %
22.06.2018 05:54 9,8 C 9,4 C 9,4 C 84 % 1021,7 hPa 0,0 l/m 0 min 0 min 12 W/m 9,0 km/h (2 Bft) 97,87 %
22.06.2018 05:56 9,8 C 9,4 C 9,4 C 84 % 1021,7 hPa 0,0 l/m 0 min 0 min 12 W/m 13,5 km/h (3 Bft) 95,74 %
22.06.2018 05:58 9,8 C 9,4 C 9,4 C 84 % 1021,6 hPa 0,0 l/m 0 min 0 min 12 W/m 6,8 km/h (2 Bft) 97,87 %
22.06.2018 06:00 9,8 C 8,9 C 9,4 C 84 % 1021,5 hPa 0,0 l/m 0 min 0 min 12 W/m 6,8 km/h (2 Bft) 97,56 %
22.06.2018 06:02 9,8 C 8,9 C 9,4 C 84 % 1021,6 hPa 0,0 l/m 0 min 0 min 14 W/m 4,5 km/h (1 Bft) 97,87 %
22.06.2018 06:04 9,7 C 9,4 C 9,4 C 84 % 1021,7 hPa 0,0 l/m 0 min 0 min 14 W/m 6,8 km/h (2 Bft) 97,87 %
22.06.2018 06:08 9,7 C 9,4 C 9,4 C 84 % 1021,6 hPa 0,0 l/m 0 min 0 min 16 W/m 6,8 km/h (2 Bft) 95,10 %
22.06.2018 06:10 9,7 C 9,4 C 9,4 C 84 % 1021,5 hPa 0,0 l/m 0 min 0 min 22 W/m 6,8 km/h (2 Bft) 100,00 %
22.06.2018 06:12 9,7 C 9,4 C 9,4 C 84 % 1021,6 hPa 0,0 l/m 0 min 0 min 25 W/m 2,3 km/h (1 Bft) 97,83 %
22.06.2018 06:14 9,7 C 9,4 C 9,4 C 84 % 1021,6 hPa 0,0 l/m 0 min 0 min 32 W/m 4,5 km/h (1 Bft) 100,00 %
22.06.2018 06:16 9,7 C 9,4 C 9,4 C 85 % 1021,6 hPa 0,0 l/m 0 min 0 min 40 W/m 9,0 km/h (2 Bft) 100,00 %
22.06.2018 06:18 9,7 C 9,4 C 9,4 C 85 % 1021,6 hPa 0,0 l/m 0 min 0 min 41 W/m 2,3 km/h (1 Bft) 97,87 %
22.06.2018 06:20 9,7 C 9,4 C 9,4 C 85 % 1021,7 hPa 0,0 l/m 0 min 0 min 38 W/m 2,3 km/h (1 Bft) 100,00 %
22.06.2018 06:22 9,7 C 9,4 C 9,4 C 85 % 1021,5 hPa 0,0 l/m 0 min 0 min 36 W/m 9,0 km/h (2 Bft) 97,62 %
22.06.2018 06:24 9,8 C 10,0 C 10,0 C 85 % 1021,6 hPa 0,0 l/m 0 min 0 min 39 W/m 2,3 km/h (1 Bft) 100,00 %
22.06.2018 06:26 9,8 C 10,0 C 10,0 C 85 % 1021,6 hPa 0,0 l/m 0 min 0 min 41 W/m 6,8 km/h (2 Bft) 97,87 %
22.06.2018 06:28 9,8 C 10,0 C 10,0 C 85 % 1021,7 hPa 0,0 l/m 0 min 0 min 44 W/m 6,8 km/h (2 Bft) 97,87 %
22.06.2018 06:30 9,8 C 10,0 C 10,0 C 85 % 1021,7 hPa 0,0 l/m 0 min 0 min 47 W/m 6,8 km/h (2 Bft) 100,00 %
22.06.2018 06:32 9,8 C 10,0 C 10,0 C 85 % 1021,6 hPa 0,0 l/m 0 min 0 min 47 W/m 11,3 km/h (2 Bft) 97,96 %
22.06.2018 06:34 9,9 C 10,0 C 10,0 C 85 % 1021,5 hPa 0,0 l/m 0 min 0 min 49 W/m 9,0 km/h (2 Bft) 100,00 %
22.06.2018 06:36 9,9 C 10,0 C 10,0 C 85 % 1021,4 hPa 0,0 l/m 0 min 0 min 53 W/m 11,3 km/h (2 Bft) 95,74 %
22.06.2018 06:38 10,0 C 10,0 C 10,0 C 85 % 1021,4 hPa 0,0 l/m 0 min 0 min 53 W/m 6,8 km/h (2 Bft) 97,92 %
22.06.2018 06:40 10,0 C 10,0 C 10,0 C 85 % 1021,4 hPa 0,0 l/m 0 min 0 min 53 W/m 11,3 km/h (2 Bft) 100,00 %
22.06.2018 06:42 10,1 C 10,0 C 10,0 C 85 % 1021,5 hPa 0,0 l/m 0 min 0 min 56 W/m 4,5 km/h (1 Bft) 97,87 %
22.06.2018 06:44 10,1 C 10,6 C 10,0 C 85 % 1021,5 hPa 0,0 l/m 0 min 0 min 57 W/m 9,0 km/h (2 Bft) 97,87 %
22.06.2018 06:46 10,2 C 10,6 C 10,0 C 85 % 1021,6 hPa 0,0 l/m 0 min 0 min 59 W/m 13,5 km/h (3 Bft) 97,92 %
22.06.2018 06:48 10,2 C 10,6 C 10,0 C 85 % 1021,6 hPa 0,0 l/m 0 min 0 min 63 W/m 6,8 km/h (2 Bft) 97,87 %
22.06.2018 06:50 10,2 C 10,6 C 10,6 C 85 % 1021,5 hPa 0,0 l/m 0 min 0 min 62 W/m 13,5 km/h (3 Bft) 97,22 %
22.06.2018 06:52 10,3 C 10,6 C 10,6 C 84 % 1021,7 hPa 0,0 l/m 0 min 0 min 53 W/m 11,3 km/h (2 Bft) 98,11 %
22.06.2018 06:54 10,4 C 10,6 C 10,6 C 84 % 1021,6 hPa 0,0 l/m 0 min 0 min 47 W/m 9,0 km/h (2 Bft) 97,62 %
22.06.2018 06:56 10,4 C 10,6 C 10,6 C 84 % 1021,7 hPa 0,0 l/m 0 min 0 min 51 W/m 11,3 km/h (2 Bft) 95,83 %
22.06.2018 06:58 10,4 C 10,6 C 10,6 C 84 % 1021,6 hPa 0,0 l/m 0 min 0 min 62 W/m 13,5 km/h (3 Bft) 95,74 %
22.06.2018 07:00 10,5 C 10,6 C 10,6 C 84 % 1021,6 hPa 0,0 l/m 0 min 0 min 73 W/m 9,0 km/h (2 Bft) 97,83 %
22.06.2018 07:02 10,6 C 10,6 C 10,6 C 84 % 1021,6 hPa 0,0 l/m 0 min 0 min 83 W/m 11,3 km/h (2 Bft) 95,74 %
22.06.2018 07:04 10,6 C 11,1 C 10,6 C 84 % 1021,5 hPa 0,0 l/m 0 min 0 min 86 W/m 9,0 km/h (2 Bft) 98,04 %
22.06.2018 07:08 10,7 C 11,1 C 10,6 C 84 % 1021,6 hPa 0,0 l/m 0 min 0 min 73 W/m 11,3 km/h (2 Bft) 95,74 %
22.06.2018 07:10 10,7 C 11,1 C 10,6 C 84 % 1021,7 hPa 0,0 l/m 0 min 0 min 57 W/m 11,3 km/h (2 Bft) 97,87 %
22.06.2018 07:12 10,8 C 11,1 C 10,6 C 84 % 1021,6 hPa 0,0 l/m 0 min 0 min 62 W/m 9,0 km/h (2 Bft) 97,83 %
22.06.2018 07:14 10,8 C 11,1 C 10,6 C 83 % 1021,5 hPa 0,0 l/m 0 min 0 min 69 W/m 18,0 km/h (3 Bft) 97,87 %
22.06.2018 07:16 10,9 C 11,1 C 10,6 C 83 % 1021,6 hPa 0,0 l/m 0 min 0 min 64 W/m 15,8 km/h (3 Bft) 97,87 %
22.06.2018 07:18 10,9 C 11,1 C 10,6 C 83 % 1021,6 hPa 0,0 l/m 0 min 0 min 69 W/m 6,8 km/h (2 Bft) 97,87 %
22.06.2018 07:20 10,9 C 11,1 C 10,6 C 83 % 1021,7 hPa 0,0 l/m 0 min 0 min 67 W/m 18,0 km/h (3 Bft) 95,74 %
22.06.2018 07:22 11,0 C 11,1 C 10,6 C 83 % 1021,7 hPa 0,0 l/m 0 min 0 min 63 W/m 9,0 km/h (2 Bft) 97,87 %
22.06.2018 07:24 11,0 C 11,1 C 10,6 C 83 % 1021,8 hPa 0,0 l/m 0 min 0 min 71 W/m 13,5 km/h (3 Bft) 100,00 %
22.06.2018 07:26 11,1 C 11,1 C 10,6 C 83 % 1021,8 hPa 0,0 l/m 0 min 0 min 97 W/m 11,3 km/h (2 Bft) 97,87 %
22.06.2018 07:28 11,1 C 11,7 C 11,1 C 83 % 1021,8 hPa 0,0 l/m 0 min 0 min 100 W/m 9,0 km/h (2 Bft) 100,00 %
22.06.2018 07:30 11,1 C 11,7 C 11,1 C 83 % 1021,7 hPa 0,0 l/m 0 min 0 min 79 W/m 11,3 km/h (2 Bft) 100,00 %
22.06.2018 07:32 11,2 C 11,7 C 11,1 C 83 % 1021,7 hPa 0,0 l/m 0 min 0 min 94 W/m 9,0 km/h (2 Bft) 100,00 %
22.06.2018 07:34 11,2 C 11,7 C 11,1 C 83 % 1021,6 hPa 0,0 l/m 0 min 0 min 93 W/m 15,8 km/h (3 Bft) 100,00 %
22.06.2018 07:36 11,3 C 11,7 C 11,1 C 82 % 1021,7 hPa 0,0 l/m 0 min 0 min 75 W/m 11,3 km/h (2 Bft) 100,00 %
22.06.2018 07:38 11,3 C 11,7 C 11,1 C 82 % 1021,7 hPa 0,0 l/m 0 min 0 min 68 W/m 18,0 km/h (3 Bft) 100,00 %
22.06.2018 07:40 11,3 C 11,7 C 11,1 C 82 % 1021,7 hPa 0,0 l/m 0 min 0 min 60 W/m 9,0 km/h (2 Bft) 100,00 %
22.06.2018 07:42 11,3 C 11,7 C 11,1 C 82 % 1021,7 hPa 0,0 l/m 0 min 0 min 49 W/m 9,0 km/h (2 Bft) 100,00 %
22.06.2018 07:44 11,4 C 11,7 C 11,1 C 82 % 1021,8 hPa 0,0 l/m 0 min 0 min 41 W/m 11,3 km/h (2 Bft) 97,83 %
22.06.2018 07:46 11,4 C 11,1 C 11,1 C 82 % 1021,7 hPa 0,0 l/m 0 min 0 min 48 W/m 9,0 km/h (2 Bft) 100,00 %
22.06.2018 07:48 11,4 C 11,1 C 11,1 C 82 % 1021,8 hPa 0,0 l/m 0 min 0 min 58 W/m 11,3 km/h (2 Bft) 97,87 %
22.06.2018 07:50 11,4 C 11,1 C 11,1 C 82 % 1021,8 hPa 0,0 l/m 0 min 0 min 61 W/m 9,0 km/h (2 Bft) 97,87 %
22.06.2018 07:52 11,4 C 11,1 C 11,1 C 81 % 1021,9 hPa 0,0 l/m 0 min 0 min 66 W/m 11,3 km/h (2 Bft) 97,87 %
22.06.2018 07:54 11,5 C 11,7 C 11,1 C 82 % 1021,9 hPa 0,0 l/m 0 min 0 min 88 W/m 6,8 km/h (2 Bft) 97,87 %
22.06.2018 07:56 11,5 C 11,7 C 11,1 C 82 % 1022,0 hPa 0,0 l/m 0 min 0 min 81 W/m 11,3 km/h (2 Bft) 97,83 %
22.06.2018 07:58 11,5 C 11,7 C 11,1 C 82 % 1021,9 hPa 0,0 l/m 0 min 0 min 81 W/m 18,0 km/h (3 Bft) 97,87 %
22.06.2018 08:00 11,5 C 11,7 C 11,1 C 82 % 1021,9 hPa 0,0 l/m 0 min 0 min 88 W/m 13,5 km/h (3 Bft) 97,87 %
22.06.2018 08:02 11,6 C 11,7 C 11,1 C 82 % 1022,1 hPa 0,0 l/m 0 min 0 min 78 W/m 9,0 km/h (2 Bft) 97,87 %
22.06.2018 08:04 11,6 C 11,7 C 11,1 C 82 % 1022,0 hPa 0,0 l/m 0 min 0 min 69 W/m 6,8 km/h (2 Bft) 97,87 %
22.06.2018 08:08 11,6 C 11,7 C 11,1 C 82 % 1022,1 hPa 0,0 l/m 0 min 0 min 59 W/m 9,0 km/h (2 Bft) 95,70 %
22.06.2018 08:10 11,6 C 11,7 C 11,1 C 82 % 1022,1 hPa 0,0 l/m 0 min 0 min 55 W/m 6,8 km/h (2 Bft) 95,74 %
22.06.2018 08:12 11,6 C 11,7 C 11,1 C 82 % 1022,1 hPa 0,0 l/m 0 min 0 min 52 W/m 6,8 km/h (2 Bft) 93,62 %
22.06.2018 08:14 11,6 C 11,7 C 11,1 C 82 % 1022,1 hPa 0,0 l/m 0 min 0 min 73 W/m 6,8 km/h (2 Bft) 95,74 %
22.06.2018 08:16 11,6 C 11,7 C 11,1 C 82 % 1022,1 hPa 0,0 l/m 0 min 0 min 98 W/m 6,8 km/h (2 Bft) 95,74 %
22.06.2018 08:18 11,6 C 11,7 C 11,1 C 82 % 1022,1 hPa 0,0 l/m 0 min 0 min 95 W/m 6,8 km/h (2 Bft) 95,74 %
22.06.2018 08:20 11,6 C 11,7 C 11,1 C 82 % 1022,1 hPa 0,0 l/m 0 min 0 min 77 W/m 9,0 km/h (2 Bft) 95,65 %
22.06.2018 08:22 11,6 C 11,7 C 11,1 C 82 % 1022,1 hPa 0,0 l/m 0 min 0 min 74 W/m 9,0 km/h (2 Bft) 93,88 %
22.06.2018 08:24 11,6 C 11,7 C 11,1 C 82 % 1022,1 hPa 0,0 l/m 0 min 0 min 84 W/m 9,0 km/h (2 Bft) 97,14 %
22.06.2018 08:26 11,7 C 11,7 C 11,1 C 82 % 1022,1 hPa 0,0 l/m 0 min 0 min 90 W/m 11,3 km/h (2 Bft) 93,62 %
22.06.2018 08:28 11,7 C 11,7 C 11,1 C 82 % 1022,0 hPa 0,0 l/m 0 min 0 min 83 W/m 6,8 km/h (2 Bft) 95,74 %
22.06.2018 08:30 11,7 C 11,7 C 11,1 C 82 % 1022,0 hPa 0,0 l/m 0 min 0 min 82 W/m 6,8 km/h (2 Bft) 95,74 %
22.06.2018 08:32 11,7 C 11,7 C 11,1 C 82 % 1022,0 hPa 0,0 l/m 0 min 0 min 84 W/m 13,5 km/h (3 Bft) 95,74 %
22.06.2018 08:34 11,7 C 11,7 C 11,1 C 82 % 1022,0 hPa 0,0 l/m 0 min 0 min 90 W/m 13,5 km/h (3 Bft) 95,74 %
22.06.2018 08:36 11,8 C 12,2 C 11,7 C 82 % 1022,0 hPa 0,0 l/m 0 min 0 min 105 W/m 11,3 km/h (2 Bft) 95,65 %
22.06.2018 08:38 11,8 C 12,2 C 11,7 C 81 % 1022,1 hPa 0,0 l/m 0 min 0 min 136 W/m 9,0 km/h (2 Bft) 93,62 %
22.06.2018 08:40 11,9 C 12,2 C 11,7 C 81 % 1022,1 hPa 0,0 l/m 0 min 0 min 163 W/m 9,0 km/h (2 Bft) 93,62 %
22.06.2018 08:42 11,9 C 12,8 C 11,7 C 81 % 1022,0 hPa 0,0 l/m 0 min 0 min 170 W/m 11,3 km/h (2 Bft) 93,62 %
22.06.2018 08:44 11,9 C 12,8 C 11,7 C 81 % 1022,0 hPa 0,0 l/m 0 min 0 min 157 W/m 6,8 km/h (2 Bft) 93,62 %
22.06.2018 08:46 12,0 C 12,8 C 11,7 C 81 % 1022,1 hPa 0,0 l/m 0 min 0 min 177 W/m 6,8 km/h (2 Bft) 95,65 %
22.06.2018 08:48 12,1 C 12,8 C 11,7 C 81 % 1022,1 hPa 0,0 l/m 0 min 0 min 168 W/m 11,3 km/h (2 Bft) 95,74 %
22.06.2018 08:50 12,2 C 12,8 C 11,7 C 80 % 1022,1 hPa 0,0 l/m 0 min 0 min 144 W/m 11,3 km/h (2 Bft) 97,87 %
22.06.2018 08:52 12,2 C 12,8 C 11,7 C 80 % 1022,0 hPa 0,0 l/m 0 min 0 min 128 W/m 15,8 km/h (3 Bft) 93,62 %
22.06.2018 08:54 12,2 C 12,8 C 11,7 C 80 % 1022,1 hPa 0,0 l/m 0 min 0 min 120 W/m 13,5 km/h (3 Bft) 100,00 %
22.06.2018 08:56 12,3 C 12,8 C 11,7 C 80 % 1022,1 hPa 0,0 l/m 0 min 0 min 106 W/m 13,5 km/h (3 Bft) 95,65 %
22.06.2018 08:58 12,3 C 12,2 C 11,7 C 79 % 1022,1 hPa 0,0 l/m 0 min 0 min 108 W/m 18,0 km/h (3 Bft) 97,87 %
22.06.2018 09:00 12,3 C 12,2 C 11,7 C 79 % 1022,2 hPa 0,0 l/m 0 min 0 min 117 W/m 9,0 km/h (2 Bft) 100,00 %
22.06.2018 09:02 12,4 C 12,8 C 11,7 C 79 % 1022,2 hPa 0,0 l/m 0 min 0 min 131 W/m 9,0 km/h (2 Bft) 100,00 %
22.06.2018 09:04 12,4 C 12,8 C 11,7 C 79 % 1022,2 hPa 0,0 l/m 0 min 0 min 139 W/m 9,0 km/h (2 Bft) 100,00 %
22.06.2018 09:06 12,4 C 12,8 C 11,7 C 79 % 1022,2 hPa 0,0 l/m 0 min 0 min 147 W/m 11,3 km/h (2 Bft) 97,83 %
22.06.2018 09:08 12,4 C 12,8 C 11,7 C 79 % 1022,2 hPa 0,0 l/m 0 min 0 min 147 W/m 9,0 km/h (2 Bft) 97,87 %
22.06.2018 09:10 12,4 C 12,8 C 11,7 C 79 % 1022,2 hPa 0,0 l/m 0 min 0 min 141 W/m 13,5 km/h (3 Bft) 100,00 %
22.06.2018 09:12 12,5 C 12,8 C 11,7 C 79 % 1022,3 hPa 0,0 l/m 0 min 0 min 123 W/m 9,0 km/h (2 Bft) 93,62 %
22.06.2018 09:14 12,5 C 12,8 C 11,7 C 79 % 1022,3 hPa 0,0 l/m 0 min 0 min 133 W/m 15,8 km/h (3 Bft) 97,87 %
22.06.2018 09:16 12,6 C 12,8 C 11,7 C 79 % 1022,3 hPa 0,0 l/m 0 min 0 min 152 W/m 13,5 km/h (3 Bft) 100,00 %
22.06.2018 09:18 12,6 C 12,8 C 12,2 C 79 % 1022,4 hPa 0,0 l/m 0 min 0 min 163 W/m 15,8 km/h (3 Bft) 100,00 %
22.06.2018 09:20 12,6 C 13,3 C 12,2 C 79 % 1022,2 hPa 0,0 l/m 0 min 0 min 174 W/m 20,3 km/h (4 Bft) 97,83 %
22.06.2018 09:22 12,6 C 12,8 C 12,2 C 79 % 1022,3 hPa 0,0 l/m 0 min 0 min 147 W/m 9,0 km/h (2 Bft) 97,87 %
22.06.2018 09:24 12,7 C 13,3 C 12,2 C 79 % 1022,3 hPa 0,0 l/m 0 min 0 min 134 W/m 9,0 km/h (2 Bft) 96,00 %
22.06.2018 09:26 12,7 C 13,3 C 12,2 C 79 % 1022,4 hPa 0,0 l/m 0 min 0 min 130 W/m 13,5 km/h (3 Bft) 100,00 %
22.06.2018 09:28 12,7 C 13,3 C 12,2 C 79 % 1022,4 hPa 0,0 l/m 0 min 0 min 153 W/m 13,5 km/h (3 Bft) 97,87 %
22.06.2018 09:30 12,8 C 13,3 C 12,2 C 78 % 1022,4 hPa 0,0 l/m 0 min 0 min 157 W/m 9,0 km/h (2 Bft) 100,00 %
22.06.2018 09:32 12,8 C 13,3 C 12,2 C 78 % 1022,4 hPa 0,0 l/m 0 min 0 min 173 W/m 11,3 km/h (2 Bft) 95,74 %
22.06.2018 09:34 12,8 C 13,3 C 12,2 C 78 % 1022,4 hPa 0,0 l/m 0 min 0 min 197 W/m 20,3 km/h (4 Bft) 97,87 %
22.06.2018 09:36 12,9 C 13,3 C 12,2 C 77 % 1022,4 hPa 0,0 l/m 0 min 0 min 169 W/m 15,8 km/h (3 Bft) 97,87 %
22.06.2018 09:38 12,9 C 13,3 C 12,2 C 77 % 1022,4 hPa 0,0 l/m 0 min 0 min 156 W/m 18,0 km/h (3 Bft) 97,87 %
22.06.2018 09:40 12,9 C 13,3 C 12,2 C 77 % 1022,4 hPa 0,0 l/m 0 min 0 min 166 W/m 22,5 km/h (4 Bft) 97,87 %
22.06.2018 09:42 13,0 C 13,3 C 12,2 C 76 % 1022,4 hPa 0,0 l/m 0 min 0 min 197 W/m 13,5 km/h (3 Bft) 95,65 %
22.06.2018 09:44 13,0 C 13,9 C 12,2 C 76 % 1022,4 hPa 0,0 l/m 0 min 0 min 207 W/m 18,0 km/h (3 Bft) 97,87 %
22.06.2018 09:46 13,1 C 13,9 C 12,2 C 76 % 1022,5 hPa 0,0 l/m 0 min 0 min 170 W/m 11,3 km/h (2 Bft) 97,87 %
22.06.2018 09:48 13,1 C 13,9 C 12,2 C 76 % 1022,5 hPa 0,0 l/m 0 min 0 min 186 W/m 15,8 km/h (3 Bft) 97,87 %
22.06.2018 09:50 13,2 C 13,9 C 12,8 C 76 % 1022,4 hPa 0,0 l/m 0 min 0 min 211 W/m 18,0 km/h (3 Bft) 97,87 %
22.06.2018 09:52 13,2 C 13,9 C 12,8 C 76 % 1022,5 hPa 0,0 l/m 0 min 0 min 237 W/m 18,0 km/h (3 Bft) 97,83 %
22.06.2018 09:54 13,2 C 13,9 C 12,8 C 75 % 1022,5 hPa 0,0 l/m 0 min 0 min 232 W/m 27,0 km/h (4 Bft) 97,37 %
22.06.2018 09:56 13,2 C 13,9 C 12,8 C 74 % 1022,5 hPa 0,0 l/m 0 min 0 min 235 W/m 15,8 km/h (3 Bft) 97,87 %
22.06.2018 09:58 13,3 C 13,9 C 12,8 C 74 % 1022,5 hPa 0,0 l/m 0 min 0 min 231 W/m 20,3 km/h (4 Bft) 95,74 %
22.06.2018 10:00 13,3 C 13,9 C 12,8 C 74 % 1022,5 hPa 0,0 l/m 0 min 0 min 216 W/m 22,5 km/h (4 Bft) 97,87 %
22.06.2018 10:02 13,3 C 13,9 C 12,8 C 73 % 1022,5 hPa 0,0 l/m 0 min 0 min 193 W/m 15,8 km/h (3 Bft) 97,87 %
22.06.2018 10:04 13,4 C 13,9 C 12,8 C 73 % 1022,6 hPa 0,0 l/m 0 min 0 min 168 W/m 11,3 km/h (2 Bft) 97,92 %
22.06.2018 10:06 13,4 C 13,9 C 12,8 C 73 % 1022,5 hPa 0,0 l/m 0 min 0 min 150 W/m 13,5 km/h (3 Bft) 97,83 %
22.06.2018 10:08 13,4 C 13,9 C 12,8 C 73 % 1022,5 hPa 0,0 l/m 0 min 0 min 148 W/m 11,3 km/h (2 Bft) 97,87 %
22.06.2018 10:10 13,4 C 13,3 C 12,8 C 74 % 1022,6 hPa 0,0 l/m 0 min 0 min 140 W/m 20,3 km/h (4 Bft) 97,87 %
22.06.2018 10:12 13,4 C 13,3 C 12,2 C 73 % 1022,8 hPa 0,0 l/m 0 min 0 min 125 W/m 18,0 km/h (3 Bft) 97,87 %
22.06.2018 10:14 13,4 C 13,3 C 12,2 C 73 % 1022,9 hPa 0,0 l/m 0 min 0 min 105 W/m 15,8 km/h (3 Bft) 97,87 %
22.06.2018 10:16 13,3 C 13,3 C 12,2 C 73 % 1023,0 hPa 0,0 l/m 0 min 0 min 94 W/m 15,8 km/h (3 Bft) 97,92 %
22.06.2018 10:18 13,3 C 13,3 C 12,2 C 73 % 1022,8 hPa 0,0 l/m 0 min 0 min 94 W/m 11,3 km/h (2 Bft) 95,65 %
22.06.2018 10:20 13,3 C 12,8 C 12,2 C 74 % 1022,7 hPa 0,0 l/m 0 min 0 min 90 W/m 13,5 km/h (3 Bft) 97,87 %
22.06.2018 10:22 13,3 C 12,8 C 12,2 C 74 % 1022,8 hPa 0,0 l/m 0 min 0 min 90 W/m 11,3 km/h (2 Bft) 97,87 %
22.06.2018 10:24 13,2 C 12,8 C 12,2 C 74 % 1022,9 hPa 0,0 l/m 0 min 0 min 88 W/m 22,5 km/h (4 Bft) 97,87 %
22.06.2018 10:26 13,2 C 12,8 C 12,2 C 74 % 1023,0 hPa 0,0 l/m 0 min 0 min 90 W/m 27,0 km/h (4 Bft) 100,00 %
22.06.2018 10:28 13,2 C 12,8 C 12,2 C 74 % 1022,9 hPa 0,0 l/m 0 min 0 min 110 W/m 27,0 km/h (4 Bft) 100,00 %
22.06.2018 10:30 13,2 C 12,8 C 12,2 C 74 % 1022,9 hPa 0,0 l/m 0 min 0 min 134 W/m 13,5 km/h (3 Bft) 100,00 %
22.06.2018 10:32 13,2 C 13,3 C 12,2 C 74 % 1023,0 hPa 0,0 l/m 0 min 0 min 138 W/m 11,3 km/h (2 Bft) 100,00 %
22.06.2018 10:34 13,2 C 13,3 C 12,2 C 74 % 1023,0 hPa 0,0 l/m 0 min 0 min 168 W/m 11,3 km/h (2 Bft) 100,00 %
22.06.2018 10:36 13,2 C 13,3 C 12,2 C 74 % 1023,0 hPa 0,0 l/m 0 min 0 min 194 W/m 15,8 km/h (3 Bft) 100,00 %
22.06.2018 10:38 13,2 C 13,9 C 12,8 C 75 % 1023,0 hPa 0,0 l/m 0 min 0 min 191 W/m 9,0 km/h (2 Bft) 100,00 %
22.06.2018 10:40 13,2 C 13,9 C 12,8 C 74 % 1023,0 hPa 0,0 l/m 0 min 0 min 174 W/m 9,0 km/h (2 Bft) 100,00 %
22.06.2018 10:42 13,2 C 13,9 C 12,8 C 74 % 1023,0 hPa 0,0 l/m 0 min 0 min 164 W/m 11,3 km/h (2 Bft) 95,65 %
22.06.2018 10:44 13,2 C 13,9 C 12,8 C 75 % 1023,1 hPa 0,0 l/m 0 min 0 min 148 W/m 11,3 km/h (2 Bft) 97,87 %
22.06.2018 10:46 13,3 C 13,9 C 12,8 C 75 % 1023,1 hPa 0,0 l/m 0 min 0 min 146 W/m 6,8 km/h (2 Bft) 97,92 %
22.06.2018 10:48 13,3 C 13,9 C 12,8 C 75 % 1023,0 hPa 0,0 l/m 0 min 0 min 177 W/m 11,3 km/h (2 Bft) 97,87 %
22.06.2018 10:50 13,3 C 13,9 C 12,8 C 74 % 1023,0 hPa 0,0 l/m 0 min 0 min 226 W/m 20,3 km/h (4 Bft) 97,87 %
22.06.2018 10:52 13,3 C 14,4 C 12,8 C 73 % 1023,0 hPa 0,0 l/m 0 min 0 min 307 W/m 18,0 km/h (3 Bft) 98,11 %
22.06.2018 10:54 13,4 C 14,4 C 12,8 C 73 % 1023,1 hPa 0,0 l/m 0 min 0 min 314 W/m 15,8 km/h (3 Bft) 97,37 %
22.06.2018 10:56 13,4 C 14,4 C 12,8 C 73 % 1023,0 hPa 0,0 l/m 0 min 0 min 319 W/m 13,5 km/h (3 Bft) 97,87 %
22.06.2018 10:58 13,6 C 14,4 C 12,8 C 73 % 1023,0 hPa 0,0 l/m 0 min 0 min 302 W/m 20,3 km/h (4 Bft) 97,87 %
22.06.2018 11:00 13,6 C 14,4 C 12,8 C 72 % 1022,9 hPa 0,0 l/m 0 min 0 min 253 W/m 11,3 km/h (2 Bft) 95,74 %
22.06.2018 11:02 13,7 C 14,4 C 12,8 C 72 % 1023,1 hPa 0,0 l/m 0 min 0 min 247 W/m 15,8 km/h (3 Bft) 97,87 %
22.06.2018 11:04 13,7 C 14,4 C 12,8 C 71 % 1023,1 hPa 0,0 l/m 0 min 0 min 283 W/m 18,0 km/h (3 Bft) 95,74 %
22.06.2018 11:06 13,8 C 14,4 C 13,3 C 72 % 1023,2 hPa 0,0 l/m 0 min 0 min 295 W/m 15,8 km/h (3 Bft) 97,83 %
22.06.2018 11:08 13,8 C 14,4 C 13,3 C 72 % 1023,1 hPa 0,0 l/m 0 min 0 min 286 W/m 22,5 km/h (4 Bft) 97,87 %
22.06.2018 11:10 13,8 C 15,0 C 13,3 C 72 % 1023,1 hPa 0,0 l/m 0 min 0 min 297 W/m 15,8 km/h (3 Bft) 97,87 %
22.06.2018 11:12 13,9 C 14,4 C 13,3 C 72 % 1023,1 hPa 0,0 l/m 0 min 0 min 257 W/m 11,3 km/h (2 Bft) 95,74 %
22.06.2018 11:14 13,9 C 14,4 C 13,3 C 72 % 1023,1 hPa 0,0 l/m 0 min 0 min 232 W/m 15,8 km/h (3 Bft) 93,62 %
22.06.2018 11:16 14,0 C 14,4 C 13,3 C 72 % 1023,1 hPa 0,0 l/m 0 min 0 min 207 W/m 13,5 km/h (3 Bft) 93,62 %
22.06.2018 11:18 14,0 C 14,4 C 13,3 C 72 % 1023,2 hPa 0,0 l/m 0 min 0 min 181 W/m 9,0 km/h (2 Bft) 93,48 %
22.06.2018 11:20 14,0 C 14,4 C 12,8 C 72 % 1023,1 hPa 0,0 l/m 0 min 0 min 158 W/m 11,3 km/h (2 Bft) 95,74 %
22.06.2018 11:22 14,0 C 13,9 C 12,8 C 72 % 1023,2 hPa 0,0 l/m 0 min 0 min 149 W/m 13,5 km/h (3 Bft) 95,74 %
22.06.2018 11:24 13,9 C 13,9 C 12,8 C 71 % 1023,1 hPa 0,0 l/m 0 min 0 min 178 W/m 20,3 km/h (4 Bft) 95,74 %
22.06.2018 11:26 13,9 C 13,9 C 12,8 C 71 % 1023,2 hPa 0,0 l/m 0 min 0 min 233 W/m 13,5 km/h (3 Bft) 97,87 %
22.06.2018 11:28 13,9 C 13,9 C 12,8 C 72 % 1023,2 hPa 0,0 l/m 0 min 0 min 221 W/m 20,3 km/h (4 Bft) 97,87 %
22.06.2018 11:30 13,9 C 14,4 C 12,8 C 72 % 1023,2 hPa 0,0 l/m 0 min 0 min 206 W/m 11,3 km/h (2 Bft) 97,83 %
22.06.2018 11:32 13,9 C 14,4 C 13,3 C 73 % 1023,2 hPa 0,0 l/m 0 min 0 min 226 W/m 18,0 km/h (3 Bft) 93,62 %
22.06.2018 11:34 14,0 C 14,4 C 13,3 C 72 % 1023,2 hPa 0,0 l/m 0 min 0 min 203 W/m 15,8 km/h (3 Bft) 97,87 %
22.06.2018 11:36 14,0 C 14,4 C 13,3 C 72 % 1023,2 hPa 0,0 l/m 0 min 0 min 179 W/m 20,3 km/h (4 Bft) 93,75 %
22.06.2018 11:38 14,0 C 14,4 C 12,8 C 72 % 1023,2 hPa 0,0 l/m 0 min 0 min 171 W/m 18,0 km/h (3 Bft) 97,87 %
22.06.2018 11:40 13,9 C 13,9 C 12,8 C 72 % 1023,2 hPa 0,0 l/m 0 min 0 min 191 W/m 20,3 km/h (4 Bft) 95,65 %
22.06.2018 11:42 13,9 C 14,4 C 12,8 C 72 % 1023,2 hPa 0,0 l/m 0 min 0 min 225 W/m 15,8 km/h (3 Bft) 97,87 %
22.06.2018 11:44 13,9 C 14,4 C 12,8 C 72 % 1023,2 hPa 0,0 l/m 0 min 0 min 230 W/m 13,5 km/h (3 Bft) 97,87 %
22.06.2018 11:46 14,0 C 14,4 C 13,3 C 73 % 1023,2 hPa 0,0 l/m 0 min 0 min 226 W/m 18,0 km/h (3 Bft) 97,87 %
22.06.2018 11:48 14,0 C 14,4 C 13,3 C 72 % 1023,3 hPa 0,0 l/m 0 min 0 min 264 W/m 18,0 km/h (3 Bft) 97,87 %
22.06.2018 11:50 14,0 C 14,4 C 13,3 C 72 % 1023,2 hPa 0,0 l/m 0 min 0 min 284 W/m 13,5 km/h (3 Bft) 97,87 %
22.06.2018 11:52 14,0 C 14,4 C 13,3 C 72 % 1023,3 hPa 0,0 l/m 0 min 0 min 273 W/m 13,5 km/h (3 Bft) 97,83 %
22.06.2018 11:54 14,1 C 15,0 C 13,3 C 73 % 1023,2 hPa 0,0 l/m 0 min 0 min 284 W/m 11,3 km/h (2 Bft) 98,00 %
22.06.2018 11:56 14,2 C 15,6 C 13,3 C 73 % 1023,3 hPa 0,0 l/m 0 min 0 min 322 W/m 18,0 km/h (3 Bft) 97,87 %
22.06.2018 11:58 14,2 C 18,3 C 13,9 C 73 % 1023,2 hPa 0,0 l/m 2 min 0 min 597 W/m 13,5 km/h (3 Bft) 95,74 %
22.06.2018 12:00 14,3 C 20,0 C 13,9 C 73 % 1023,1 hPa 0,0 l/m 2 min 0 min 901 W/m 18,0 km/h (3 Bft) 95,74 %
22.06.2018 12:02 14,6 C 21,1 C 14,4 C 73 % 1023,2 hPa 0,0 l/m 2 min 0 min 900 W/m 15,8 km/h (3 Bft) 100,00 %
22.06.2018 12:04 14,8 C 20,0 C 14,4 C 72 % 1023,3 hPa 0,0 l/m 2 min 0 min 905 W/m 18,0 km/h (3 Bft) 100,00 %
22.06.2018 12:08 15,2 C 21,1 C 14,4 C 71 % 1023,3 hPa 0,0 l/m 4 min 0 min 865 W/m 11,3 km/h (2 Bft) 98,94 %
22.06.2018 12:10 15,4 C 22,2 C 15,0 C 71 % 1023,4 hPa 0,0 l/m 2 min 0 min 996 W/m 20,3 km/h (4 Bft) 97,87 %
22.06.2018 12:12 15,6 C 22,8 C 15,0 C 70 % 1023,4 hPa 0,0 l/m 2 min 0 min 1100 W/m 20,3 km/h (4 Bft) 100,00 %
22.06.2018 12:14 15,8 C 20,6 C 15,0 C 70 % 1023,4 hPa 0,0 l/m 2 min 0 min 896 W/m 18,0 km/h (3 Bft) 100,00 %
22.06.2018 12:16 15,9 C 18,3 C 14,4 C 69 % 1023,2 hPa 0,0 l/m 0 min 0 min 388 W/m 13,5 km/h (3 Bft) 100,00 %
22.06.2018 12:18 15,9 C 16,7 C 14,4 C 69 % 1023,3 hPa 0,0 l/m 0 min 0 min 325 W/m 18,0 km/h (3 Bft) 100,00 %
22.06.2018 12:20 15,8 C 16,1 C 13,9 C 68 % 1023,4 hPa 0,0 l/m 0 min 0 min 307 W/m 18,0 km/h (3 Bft) 97,87 %
22.06.2018 12:22 15,8 C 16,1 C 13,9 C 68 % 1023,3 hPa 0,0 l/m 0 min 2 min 374 W/m 15,8 km/h (3 Bft) 96,23 %
22.06.2018 12:24 15,7 C 16,1 C 13,9 C 69 % 1023,4 hPa 0,0 l/m 0 min 2 min 406 W/m 15,8 km/h (3 Bft) 100,00 %
22.06.2018 12:26 15,7 C 16,1 C 13,9 C 69 % 1023,4 hPa 0,0 l/m 0 min 2 min 384 W/m 9,0 km/h (2 Bft) 100,00 %
22.06.2018 12:28 15,6 C 16,1 C 13,9 C 70 % 1023,4 hPa 0,0 l/m 0 min 0 min 442 W/m 20,3 km/h (4 Bft) 100,00 %
22.06.2018 12:30 15,6 C 17,2 C 13,9 C 70 % 1023,4 hPa 0,0 l/m 2 min 0 min 511 W/m 11,3 km/h (2 Bft) 100,00 %
22.06.2018 12:32 15,6 C 17,8 C 14,4 C 72 % 1023,4 hPa 0,0 l/m 2 min 2 min 615 W/m 11,3 km/h (2 Bft) 100,00 %
22.06.2018 12:34 15,7 C 18,9 C 15,0 C 72 % 1023,4 hPa 0,0 l/m 2 min 0 min 585 W/m 13,5 km/h (3 Bft) 97,87 %
22.06.2018 12:38 15,8 C 18,3 C 15,0 C 71 % 1023,4 hPa 0,0 l/m 4 min 0 min 557 W/m 13,5 km/h (3 Bft) 96,81 %
22.06.2018 12:40 15,8 C 18,9 C 15,0 C 71 % 1023,4 hPa 0,0 l/m 2 min 0 min 651 W/m 11,3 km/h (2 Bft) 100,00 %
22.06.2018 12:42 15,9 C 18,9 C 15,0 C 71 % 1023,4 hPa 0,0 l/m 2 min 0 min 644 W/m 20,3 km/h (4 Bft) 95,74 %
22.06.2018 12:44 15,9 C 18,9 C 15,0 C 71 % 1023,4 hPa 0,0 l/m 2 min 0 min 595 W/m 9,0 km/h (2 Bft) 97,87 %
22.06.2018 12:46 16,0 C 18,3 C 15,0 C 71 % 1023,4 hPa 0,0 l/m 2 min 0 min 487 W/m 13,5 km/h (3 Bft) 97,62 %
22.06.2018 12:48 16,1 C 18,3 C 15,0 C 71 % 1023,4 hPa 0,0 l/m 2 min 0 min 452 W/m 11,3 km/h (2 Bft) 97,87 %
22.06.2018 12:50 16,1 C 17,8 C 15,0 C 70 % 1023,3 hPa 0,0 l/m 2 min 0 min 477 W/m 13,5 km/h (3 Bft) 100,00 %
22.06.2018 12:52 16,1 C 16,7 C 15,0 C 70 % 1023,4 hPa 0,0 l/m 0 min 0 min 293 W/m 13,5 km/h (3 Bft) 100,00 %
22.06.2018 12:54 15,9 C 15,6 C 14,4 C 69 % 1023,3 hPa 0,0 l/m 0 min 2 min 80 W/m 18,0 km/h (3 Bft) 100,00 %
22.06.2018 12:56 15,9 C 14,4 C 13,9 C 70 % 1023,5 hPa 0,0 l/m 0 min 2 min 58 W/m 13,5 km/h (3 Bft) 97,87 %
22.06.2018 12:58 15,7 C 13,9 C 13,3 C 71 % 1023,5 hPa 0,0 l/m 0 min 2 min 68 W/m 18,0 km/h (3 Bft) 97,87 %
22.06.2018 13:00 15,6 C 13,9 C 13,3 C 72 % 1023,6 hPa 0,0 l/m 0 min 2 min 120 W/m 11,3 km/h (2 Bft) 97,87 %
22.06.2018 13:02 15,4 C 13,9 C 13,3 C 73 % 1023,6 hPa 0,0 l/m 0 min 0 min 184 W/m 20,3 km/h (4 Bft) 95,65 %
22.06.2018 13:04 15,3 C 14,4 C 13,3 C 73 % 1023,6 hPa 0,0 l/m 0 min 0 min 235 W/m 15,8 km/h (3 Bft) 98,00 %
22.06.2018 13:06 15,3 C 15,0 C 13,9 C 74 % 1023,6 hPa 0,0 l/m 0 min 0 min 286 W/m 11,3 km/h (2 Bft) 100,00 %
22.06.2018 13:08 15,2 C 15,6 C 13,9 C 73 % 1023,6 hPa 0,0 l/m 0 min 0 min 398 W/m 13,5 km/h (3 Bft) 94,92 %
22.06.2018 13:10 15,2 C 16,1 C 14,4 C 73 % 1023,5 hPa 0,0 l/m 0 min 0 min 441 W/m 15,8 km/h (3 Bft) 95,74 %
22.06.2018 13:12 15,2 C 17,2 C 14,4 C 74 % 1023,5 hPa 0,0 l/m 2 min 0 min 486 W/m 11,3 km/h (2 Bft) 95,65 %
22.06.2018 13:14 15,2 C 17,2 C 14,4 C 73 % 1023,4 hPa 0,0 l/m 0 min 0 min 404 W/m 20,3 km/h (4 Bft) 95,74 %
22.06.2018 13:16 15,3 C 16,7 C 14,4 C 72 % 1023,5 hPa 0,0 l/m 0 min 0 min 365 W/m 15,8 km/h (3 Bft) 93,75 %
22.06.2018 13:18 15,3 C 16,1 C 14,4 C 71 % 1023,5 hPa 0,0 l/m 0 min 0 min 242 W/m 20,3 km/h (4 Bft) 95,74 %
22.06.2018 13:20 15,3 C 16,1 C 14,4 C 71 % 1023,5 hPa 0,0 l/m 0 min 0 min 280 W/m 13,5 km/h (3 Bft) 93,62 %
22.06.2018 13:22 15,3 C 16,1 C 14,4 C 71 % 1023,6 hPa 0,0 l/m 0 min 0 min 366 W/m 22,5 km/h (4 Bft) 94,29 %
22.06.2018 13:24 15,3 C 16,7 C 14,4 C 71 % 1023,6 hPa 0,0 l/m 0 min 0 min 419 W/m 18,0 km/h (3 Bft) 95,74 %
22.06.2018 13:26 15,3 C 17,8 C 15,0 C 71 % 1023,4 hPa 0,0 l/m 0 min 0 min 425 W/m 22,5 km/h (4 Bft) 95,65 %
22.06.2018 13:28 15,4 C 17,8 C 15,0 C 71 % 1023,5 hPa 0,0 l/m 0 min 0 min 394 W/m 13,5 km/h (3 Bft) 95,74 %
22.06.2018 13:30 15,5 C 17,8 C 15,0 C 71 % 1023,4 hPa 0,0 l/m 0 min 0 min 399 W/m 11,3 km/h (2 Bft) 95,74 %
22.06.2018 13:32 15,6 C 17,2 C 15,0 C 72 % 1023,5 hPa 0,0 l/m 0 min 0 min 243 W/m 13,5 km/h (3 Bft) 95,74 %
22.06.2018 13:34 15,6 C 16,1 C 14,4 C 71 % 1023,6 hPa 0,0 l/m 0 min 0 min 156 W/m 13,5 km/h (3 Bft) 95,74 %
22.06.2018 13:36 15,6 C 15,6 C 14,4 C 72 % 1023,6 hPa 0,0 l/m 0 min 0 min 195 W/m 18,0 km/h (3 Bft) 95,74 %
22.06.2018 13:38 15,6 C 16,1 C 14,4 C 72 % 1023,5 hPa 0,0 l/m 0 min 0 min 348 W/m 11,3 km/h (2 Bft) 93,48 %
22.06.2018 13:40 15,6 C 16,7 C 14,4 C 72 % 1023,5 hPa 0,0 l/m 0 min 0 min 387 W/m 15,8 km/h (3 Bft) 95,74 %
22.06.2018 13:42 15,6 C 16,7 C 14,4 C 71 % 1023,6 hPa 0,0 l/m 0 min 0 min 422 W/m 15,8 km/h (3 Bft) 95,74 %
22.06.2018 13:44 15,6 C 16,1 C 14,4 C 72 % 1023,5 hPa 0,0 l/m 2 min 0 min 473 W/m 13,5 km/h (3 Bft) 93,62 %
22.06.2018 13:46 15,6 C 16,1 C 14,4 C 72 % 1023,5 hPa 0,0 l/m 0 min 0 min 260 W/m 6,8 km/h (2 Bft) 95,74 %
22.06.2018 13:48 15,6 C 16,1 C 14,4 C 72 % 1023,4 hPa 0,0 l/m 0 min 0 min 275 W/m 11,3 km/h (2 Bft) 95,74 %
22.06.2018 13:50 15,5 C 16,1 C 14,4 C 72 % 1023,4 hPa 0,0 l/m 0 min 0 min 341 W/m 6,8 km/h (2 Bft) 95,65 %
22.06.2018 13:52 15,5 C 16,1 C 15,0 C 72 % 1023,5 hPa 0,0 l/m 0 min 0 min 425 W/m 9,0 km/h (2 Bft) 97,87 %
22.06.2018 13:54 15,6 C 16,7 C 15,0 C 72 % 1023,4 hPa 0,0 l/m 2 min 0 min 479 W/m 6,8 km/h (2 Bft) 97,87 %
22.06.2018 13:56 15,6 C 17,8 C 15,6 C 72 % 1023,4 hPa 0,0 l/m 2 min 0 min 543 W/m 9,0 km/h (2 Bft) 93,62 %
22.06.2018 13:58 15,7 C 17,8 C 15,6 C 72 % 1023,4 hPa 0,0 l/m 2 min 0 min 521 W/m 11,3 km/h (2 Bft) 97,87 %
22.06.2018 14:00 15,8 C 17,8 C 15,6 C 72 % 1023,5 hPa 0,0 l/m 0 min 0 min 399 W/m 11,3 km/h (2 Bft) 97,87 %
22.06.2018 14:02 15,9 C 17,2 C 15,6 C 71 % 1023,4 hPa 0,0 l/m 0 min 0 min 225 W/m 11,3 km/h (2 Bft) 95,74 %
22.06.2018 14:04 15,9 C 16,7 C 15,0 C 70 % 1023,4 hPa 0,0 l/m 0 min 0 min 140 W/m 9,0 km/h (2 Bft) 93,62 %
22.06.2018 14:06 16,0 C 16,1 C 15,0 C 71 % 1023,5 hPa 0,0 l/m 0 min 2 min 86 W/m 11,3 km/h (2 Bft) 97,87 %
22.06.2018 14:08 15,9 C 15,6 C 14,4 C 71 % 1023,5 hPa 0,0 l/m 0 min 2 min 70 W/m 15,8 km/h (3 Bft) 98,21 %
22.06.2018 14:10 15,9 C 14,4 C 13,9 C 71 % 1023,7 hPa 0,0 l/m 0 min 2 min 91 W/m 15,8 km/h (3 Bft) 97,87 %
22.06.2018 14:12 15,8 C 13,3 C 12,8 C 74 % 1023,7 hPa 0,0 l/m 0 min 2 min 127 W/m 15,8 km/h (3 Bft) 97,83 %
22.06.2018 14:14 15,7 C 12,8 C 12,8 C 75 % 1023,9 hPa 0,0 l/m 0 min 2 min 153 W/m 15,8 km/h (3 Bft) 97,87 %
22.06.2018 14:16 15,5 C 12,8 C 12,2 C 76 % 1023,7 hPa 0,0 l/m 0 min 2 min 157 W/m 9,0 km/h (2 Bft) 97,87 %
22.06.2018 14:18 15,3 C 12,8 C 12,2 C 77 % 1023,7 hPa 0,0 l/m 0 min 2 min 150 W/m 11,3 km/h (2 Bft) 97,87 %
22.06.2018 14:20 15,2 C 12,8 C 12,8 C 77 % 1023,7 hPa 0,0 l/m 0 min 2 min 126 W/m 15,8 km/h (3 Bft) 97,87 %
22.06.2018 14:22 15,1 C 12,8 C 12,8 C 77 % 1023,7 hPa 0,0 l/m 0 min 0 min 107 W/m 15,8 km/h (3 Bft) 95,74 %
22.06.2018 14:24 14,9 C 12,8 C 12,8 C 78 % 1023,7 hPa 0,0 l/m 0 min 0 min 96 W/m 11,3 km/h (2 Bft) 97,96 %
22.06.2018 14:26 14,9 C 12,8 C 12,8 C 78 % 1023,7 hPa 0,0 l/m 0 min 2 min 92 W/m 11,3 km/h (2 Bft) 100,00 %
22.06.2018 14:28 14,8 C 12,8 C 12,8 C 79 % 1023,7 hPa 0,0 l/m 0 min 2 min 111 W/m 6,8 km/h (2 Bft) 97,87 %
22.06.2018 14:30 14,8 C 12,8 C 12,8 C 79 % 1023,8 hPa 0,0 l/m 0 min 2 min 156 W/m 11,3 km/h (2 Bft) 97,87 %
22.06.2018 14:32 14,7 C 12,8 C 12,8 C 80 % 1023,7 hPa 0,0 l/m 0 min 0 min 180 W/m 6,8 km/h (2 Bft) 97,87 %
22.06.2018 14:34 14,7 C 13,3 C 12,8 C 81 % 1023,6 hPa 0,0 l/m 0 min 0 min 206 W/m 6,8 km/h (2 Bft) 93,62 %
22.06.2018 14:38 14,8 C 14,4 C 13,3 C 83 % 1023,6 hPa 0,0 l/m 4 min 0 min 917 W/m 9,0 km/h (2 Bft) 97,85 %
22.06.2018 14:40 14,8 C 15,0 C 13,9 C 83 % 1023,6 hPa 0,0 l/m 2 min 0 min 472 W/m 11,3 km/h (2 Bft) 97,87 %
22.06.2018 14:42 14,8 C 15,6 C 13,9 C 83 % 1023,6 hPa 0,0 l/m 2 min 0 min 540 W/m 9,0 km/h (2 Bft) 97,87 %
22.06.2018 14:44 14,9 C 15,6 C 13,9 C 84 % 1023,5 hPa 0,0 l/m 0 min 0 min 384 W/m 11,3 km/h (2 Bft) 95,74 %
22.06.2018 14:46 14,9 C 15,6 C 13,9 C 83 % 1023,5 hPa 0,0 l/m 0 min 0 min 236 W/m 9,0 km/h (2 Bft) 97,87 %
22.06.2018 14:48 14,9 C 15,6 C 13,9 C 82 % 1023,6 hPa 0,0 l/m 0 min 0 min 167 W/m 11,3 km/h (2 Bft) 95,74 %
22.06.2018 14:50 14,9 C 15,6 C 13,9 C 82 % 1023,5 hPa 0,0 l/m 0 min 0 min 120 W/m 9,0 km/h (2 Bft) 97,83 %
22.06.2018 14:52 14,9 C 15,0 C 13,9 C 82 % 1023,7 hPa 0,0 l/m 0 min 0 min 91 W/m 9,0 km/h (2 Bft) 97,87 %
22.06.2018 14:54 14,9 C 15,0 C 13,9 C 81 % 1023,5 hPa 0,0 l/m 0 min 0 min 84 W/m 22,5 km/h (4 Bft) 98,15 %
22.06.2018 14:56 14,9 C 14,4 C 13,9 C 80 % 1023,6 hPa 0,0 l/m 0 min 2 min 122 W/m 22,5 km/h (4 Bft) 97,87 %
22.06.2018 14:58 14,9 C 14,4 C 13,9 C 79 % 1023,6 hPa 0,0 l/m 0 min 2 min 180 W/m 15,8 km/h (3 Bft) 97,83 %
22.06.2018 15:00 14,8 C 14,4 C 13,9 C 79 % 1023,6 hPa 0,0 l/m 0 min 2 min 257 W/m 24,8 km/h (4 Bft) 97,87 %
22.06.2018 15:02 14,8 C 15,0 C 13,9 C 80 % 1023,6 hPa 0,0 l/m 0 min 2 min 287 W/m 15,8 km/h (3 Bft) 95,74 %
22.06.2018 15:04 14,8 C 15,0 C 13,9 C 80 % 1023,6 hPa 0,0 l/m 0 min 0 min 288 W/m 6,8 km/h (2 Bft) 97,87 %
22.06.2018 15:06 14,9 C 15,6 C 13,9 C 80 % 1023,5 hPa 0,0 l/m 0 min 0 min 319 W/m 9,0 km/h (2 Bft) 97,87 %
22.06.2018 15:08 14,9 C 16,1 C 14,4 C 80 % 1023,6 hPa 0,0 l/m 0 min 0 min 352 W/m 6,8 km/h (2 Bft) 97,87 %
22.06.2018 15:10 15,0 C 17,2 C 15,0 C 80 % 1023,6 hPa 0,0 l/m 0 min 0 min 352 W/m 13,5 km/h (3 Bft) 100,00 %
22.06.2018 15:12 15,1 C 17,2 C 15,0 C 79 % 1023,6 hPa 0,0 l/m 0 min 0 min 405 W/m 15,8 km/h (3 Bft) 100,00 %
22.06.2018 15:14 15,3 C 17,2 C 15,6 C 78 % 1023,5 hPa 0,0 l/m 2 min 0 min 976 W/m 13,5 km/h (3 Bft) 100,00 %
22.06.2018 15:16 15,5 C 17,2 C 15,6 C 77 % 1023,7 hPa 0,0 l/m 2 min 0 min 828 W/m 20,3 km/h (4 Bft) 97,62 %
22.06.2018 15:18 15,7 C 17,2 C 15,0 C 75 % 1023,6 hPa 0,0 l/m 2 min 0 min 591 W/m 13,5 km/h (3 Bft) 100,00 %
22.06.2018 15:20 15,7 C 17,2 C 15,0 C 74 % 1023,6 hPa 0,0 l/m 2 min 0 min 430 W/m 18,0 km/h (3 Bft) 100,00 %
22.06.2018 15:22 15,9 C 17,8 C 15,6 C 75 % 1023,6 hPa 0,0 l/m 2 min 0 min 931 W/m 15,8 km/h (3 Bft) 100,00 %
22.06.2018 15:24 16,1 C 17,8 C 15,6 C 74 % 1023,6 hPa 0,0 l/m 2 min 0 min 1093 W/m 11,3 km/h (2 Bft) 100,00 %
22.06.2018 15:26 16,2 C 17,8 C 15,6 C 74 % 1023,5 hPa 0,0 l/m 2 min 0 min 1070 W/m 9,0 km/h (2 Bft) 97,87 %
22.06.2018 15:28 16,3 C 17,2 C 15,6 C 73 % 1023,6 hPa 0,0 l/m 2 min 0 min 430 W/m 11,3 km/h (2 Bft) 100,00 %
22.06.2018 15:30 16,4 C 17,8 C 15,6 C 73 % 1023,6 hPa 0,0 l/m 0 min 0 min 322 W/m 15,8 km/h (3 Bft) 100,00 %
22.06.2018 15:32 16,4 C 17,8 C 15,6 C 74 % 1023,5 hPa 0,0 l/m 2 min 0 min 850 W/m 13,5 km/h (3 Bft) 100,00 %
22.06.2018 15:34 16,6 C 18,3 C 15,6 C 74 % 1023,6 hPa 0,0 l/m 2 min 0 min 1098 W/m 11,3 km/h (2 Bft) 100,00 %
22.06.2018 15:36 16,7 C 18,3 C 16,1 C 73 % 1023,8 hPa 0,0 l/m 2 min 0 min 798 W/m 15,8 km/h (3 Bft) 100,00 %
22.06.2018 15:38 16,7 C 18,3 C 15,6 C 73 % 1023,7 hPa 0,0 l/m 2 min 0 min 795 W/m 11,3 km/h (2 Bft) 100,00 %
22.06.2018 15:40 16,8 C 17,8 C 15,6 C 72 % 1023,7 hPa 0,0 l/m 2 min 0 min 793 W/m 18,0 km/h (3 Bft) 100,00 %
22.06.2018 15:42 16,8 C 17,2 C 15,6 C 72 % 1023,7 hPa 0,0 l/m 0 min 0 min 219 W/m 15,8 km/h (3 Bft) 97,87 %
22.06.2018 15:44 16,8 C 16,7 C 15,0 C 72 % 1023,8 hPa 0,0 l/m 0 min 2 min 167 W/m 18,0 km/h (3 Bft) 100,00 %
22.06.2018 15:46 16,7 C 16,1 C 15,0 C 71 % 1023,8 hPa 0,0 l/m 0 min 0 min 148 W/m 11,3 km/h (2 Bft) 93,62 %
22.06.2018 15:48 16,6 C 15,6 C 14,4 C 72 % 1023,8 hPa 0,0 l/m 0 min 0 min 175 W/m 11,3 km/h (2 Bft) 97,87 %
22.06.2018 15:50 16,5 C 16,1 C 14,4 C 72 % 1023,8 hPa 0,0 l/m 0 min 0 min 223 W/m 6,8 km/h (2 Bft) 97,87 %
22.06.2018 15:52 16,4 C 15,6 C 14,4 C 73 % 1023,8 hPa 0,0 l/m 0 min 2 min 255 W/m 13,5 km/h (3 Bft) 95,83 %
22.06.2018 15:54 16,3 C 15,6 C 14,4 C 74 % 1023,8 hPa 0,0 l/m 0 min 2 min 297 W/m 9,0 km/h (2 Bft) 97,37 %
22.06.2018 15:56 16,3 C 17,8 C 14,4 C 75 % 1023,8 hPa 0,0 l/m 0 min 0 min 338 W/m 6,8 km/h (2 Bft) 97,87 %
22.06.2018 15:58 16,3 C 19,4 C 15,0 C 75 % 1023,8 hPa 0,0 l/m 2 min 0 min 921 W/m 9,0 km/h (2 Bft) 95,65 %
22.06.2018 16:00 16,3 C 20,0 C 15,6 C 75 % 1023,6 hPa 0,0 l/m 2 min 0 min 1004 W/m 13,5 km/h (3 Bft) 97,87 %
22.06.2018 16:02 16,4 C 18,9 C 15,6 C 75 % 1023,7 hPa 0,0 l/m 2 min 0 min 806 W/m 13,5 km/h (3 Bft) 93,62 %
22.06.2018 16:04 16,4 C 18,9 C 15,6 C 73 % 1023,6 hPa 0,0 l/m 0 min 0 min 375 W/m 18,0 km/h (3 Bft) 97,87 %
22.06.2018 16:06 16,4 C 18,3 C 15,6 C 73 % 1023,7 hPa 0,0 l/m 0 min 0 min 335 W/m 13,5 km/h (3 Bft) 97,87 %
22.06.2018 16:08 16,4 C 17,2 C 15,0 C 73 % 1023,7 hPa 0,0 l/m 0 min 0 min 305 W/m 27,0 km/h (4 Bft) 95,74 %
22.06.2018 16:10 16,4 C 17,2 C 15,0 C 71 % 1023,7 hPa 0,0 l/m 0 min 0 min 331 W/m 13,5 km/h (3 Bft) 95,65 %
22.06.2018 16:12 16,4 C 17,8 C 15,0 C 71 % 1023,7 hPa 0,0 l/m 0 min 0 min 352 W/m 13,5 km/h (3 Bft) 93,62 %
22.06.2018 16:14 16,4 C 18,3 C 15,6 C 72 % 1023,7 hPa 0,0 l/m 0 min 0 min 327 W/m 22,5 km/h (4 Bft) 95,74 %
22.06.2018 16:16 16,5 C 20,0 C 15,6 C 72 % 1023,6 hPa 0,0 l/m 2 min 0 min 883 W/m 11,3 km/h (2 Bft) 97,87 %
22.06.2018 16:18 16,6 C 20,6 C 16,1 C 72 % 1023,7 hPa 0,0 l/m 2 min 0 min 851 W/m 18,0 km/h (3 Bft) 97,87 %
22.06.2018 16:20 16,7 C 19,4 C 16,1 C 72 % 1023,6 hPa 0,0 l/m 2 min 0 min 773 W/m 9,0 km/h (2 Bft) 95,74 %
22.06.2018 16:22 16,8 C 18,9 C 16,1 C 71 % 1023,6 hPa 0,0 l/m 2 min 0 min 773 W/m 11,3 km/h (2 Bft) 95,65 %
22.06.2018 16:24 16,8 C 18,9 C 16,1 C 71 % 1023,7 hPa 0,0 l/m 2 min 0 min 773 W/m 18,0 km/h (3 Bft) 96,30 %
22.06.2018 16:26 16,9 C 18,9 C 16,1 C 70 % 1023,5 hPa 0,0 l/m 0 min 0 min 284 W/m 20,3 km/h (4 Bft) 95,74 %
22.06.2018 16:28 16,9 C 18,9 C 15,6 C 70 % 1023,6 hPa 0,0 l/m 0 min 0 min 156 W/m 11,3 km/h (2 Bft) 97,87 %
22.06.2018 16:30 16,9 C 20,0 C 16,1 C 69 % 1023,6 hPa 0,0 l/m 2 min 0 min 596 W/m 18,0 km/h (3 Bft) 97,87 %
22.06.2018 16:32 17,1 C 21,1 C 16,1 C 70 % 1023,5 hPa 0,0 l/m 2 min 0 min 826 W/m 13,5 km/h (3 Bft) 97,83 %
22.06.2018 16:34 17,2 C 21,1 C 16,7 C 69 % 1023,5 hPa 0,0 l/m 2 min 0 min 831 W/m 15,8 km/h (3 Bft) 97,87 %
22.06.2018 16:36 17,3 C 21,1 C 16,7 C 69 % 1023,5 hPa 0,0 l/m 2 min 0 min 831 W/m 20,3 km/h (4 Bft) 95,74 %
22.06.2018 16:38 17,5 C 21,7 C 16,7 C 68 % 1023,6 hPa 0,0 l/m 2 min 0 min 832 W/m 18,0 km/h (3 Bft) 97,87 %
22.06.2018 16:40 17,7 C 21,7 C 17,2 C 68 % 1023,5 hPa 0,0 l/m 2 min 0 min 833 W/m 15,8 km/h (3 Bft) 97,87 %
22.06.2018 16:42 17,8 C 20,6 C 17,2 C 67 % 1023,5 hPa 0,0 l/m 2 min 0 min 842 W/m 18,0 km/h (3 Bft) 97,87 %
22.06.2018 16:44 17,9 C 18,9 C 16,7 C 65 % 1023,6 hPa 0,0 l/m 2 min 0 min 607 W/m 15,8 km/h (3 Bft) 97,83 %
22.06.2018 16:46 17,9 C 19,4 C 16,7 C 66 % 1023,5 hPa 0,0 l/m 2 min 0 min 576 W/m 9,0 km/h (2 Bft) 97,87 %
22.06.2018 16:48 17,9 C 18,9 C 16,7 C 66 % 1023,6 hPa 0,0 l/m 2 min 0 min 759 W/m 13,5 km/h (3 Bft) 95,74 %
22.06.2018 16:50 17,9 C 18,9 C 16,7 C 65 % 1023,6 hPa 0,0 l/m 0 min 0 min 315 W/m 18,0 km/h (3 Bft) 97,87 %
22.06.2018 16:52 17,9 C 18,3 C 16,7 C 65 % 1023,7 hPa 0,0 l/m 0 min 0 min 331 W/m 13,5 km/h (3 Bft) 97,87 %
22.06.2018 16:54 17,9 C 18,3 C 16,1 C 65 % 1023,7 hPa 0,0 l/m 0 min 0 min 350 W/m 18,0 km/h (3 Bft) 97,96 %
22.06.2018 16:56 17,8 C 17,8 C 16,1 C 64 % 1023,7 hPa 0,0 l/m 2 min 0 min 352 W/m 13,5 km/h (3 Bft) 95,74 %
22.06.2018 16:58 17,7 C 18,9 C 16,1 C 64 % 1023,8 hPa 0,0 l/m 2 min 0 min 390 W/m 18,0 km/h (3 Bft) 97,87 %
22.06.2018 17:00 17,7 C 18,3 C 16,1 C 65 % 1023,7 hPa 0,0 l/m 2 min 0 min 373 W/m 18,0 km/h (3 Bft) 97,87 %
22.06.2018 17:02 17,7 C 18,3 C 16,1 C 66 % 1023,7 hPa 0,0 l/m 2 min 0 min 378 W/m 20,3 km/h (4 Bft) 95,74 %
22.06.2018 17:04 17,6 C 18,9 C 16,1 C 65 % 1023,6 hPa 0,0 l/m 2 min 0 min 390 W/m 13,5 km/h (3 Bft) 97,87 %
22.06.2018 17:06 17,6 C 18,9 C 16,7 C 66 % 1023,7 hPa 0,0 l/m 2 min 0 min 390 W/m 11,3 km/h (2 Bft) 94,44 %
22.06.2018 17:08 17,7 C 18,9 C 16,7 C 66 % 1023,7 hPa 0,0 l/m 2 min 0 min 390 W/m 18,0 km/h (3 Bft) 95,65 %
22.06.2018 17:10 17,7 C 19,4 C 16,7 C 66 % 1023,7 hPa 0,0 l/m 2 min 0 min 480 W/m 15,8 km/h (3 Bft) 95,74 %
22.06.2018 17:12 17,7 C 20,0 C 16,7 C 66 % 1023,7 hPa 0,0 l/m 2 min 0 min 804 W/m 24,8 km/h (4 Bft) 93,62 %
22.06.2018 17:14 17,8 C 20,0 C 16,7 C 65 % 1023,7 hPa 0,0 l/m 2 min 0 min 636 W/m 20,3 km/h (4 Bft) 95,74 %
22.06.2018 17:16 17,8 C 20,0 C 16,7 C 65 % 1023,6 hPa 0,0 l/m 2 min 0 min 833 W/m 11,3 km/h (2 Bft) 95,74 %
22.06.2018 17:18 17,9 C 20,0 C 17,2 C 65 % 1023,6 hPa 0,0 l/m 2 min 0 min 859 W/m 24,8 km/h (4 Bft) 95,74 %
22.06.2018 17:20 17,9 C 18,9 C 16,7 C 65 % 1023,6 hPa 0,0 l/m 2 min 0 min 345 W/m 13,5 km/h (3 Bft) 95,74 %
22.06.2018 17:22 17,9 C 18,3 C 16,7 C 64 % 1023,7 hPa 0,0 l/m 0 min 0 min 218 W/m 13,5 km/h (3 Bft) 93,48 %
22.06.2018 17:24 17,9 C 17,8 C 16,1 C 64 % 1023,7 hPa 0,0 l/m 0 min 0 min 205 W/m 22,5 km/h (4 Bft) 93,75 %
22.06.2018 17:26 17,8 C 17,2 C 16,1 C 64 % 1023,7 hPa 0,0 l/m 0 min 0 min 187 W/m 15,8 km/h (3 Bft) 95,74 %
22.06.2018 17:28 17,7 C 17,2 C 16,1 C 65 % 1023,8 hPa 0,0 l/m 0 min 0 min 178 W/m 15,8 km/h (3 Bft) 95,74 %
22.06.2018 17:30 17,6 C 16,7 C 16,1 C 65 % 1023,9 hPa 0,0 l/m 0 min 0 min 163 W/m 18,0 km/h (3 Bft) 95,74 %
22.06.2018 17:32 17,5 C 16,7 C 15,6 C 65 % 1024,0 hPa 0,0 l/m 0 min 0 min 140 W/m 18,0 km/h (3 Bft) 93,48 %
22.06.2018 17:34 17,4 C 16,7 C 15,6 C 65 % 1023,8 hPa 0,0 l/m 0 min 0 min 120 W/m 15,8 km/h (3 Bft) 95,74 %
22.06.2018 17:36 17,3 C 16,1 C 15,6 C 66 % 1023,9 hPa 0,0 l/m 0 min 0 min 106 W/m 15,8 km/h (3 Bft) 97,87 %
22.06.2018 17:38 17,2 C 16,1 C 15,0 C 66 % 1023,9 hPa 0,0 l/m 0 min 2 min 96 W/m 20,3 km/h (4 Bft) 97,87 %
22.06.2018 17:40 17,1 C 15,6 C 15,0 C 67 % 1023,9 hPa 0,0 l/m 0 min 2 min 91 W/m 15,8 km/h (3 Bft) 97,87 %
22.06.2018 17:42 16,9 C 15,6 C 15,0 C 68 % 1023,9 hPa 0,0 l/m 0 min 2 min 96 W/m 13,5 km/h (3 Bft) 97,87 %
22.06.2018 17:44 16,8 C 15,6 C 15,0 C 67 % 1024,0 hPa 0,0 l/m 0 min 0 min 125 W/m 18,0 km/h (3 Bft) 97,83 %
22.06.2018 17:46 16,7 C 15,6 C 15,0 C 67 % 1023,9 hPa 0,0 l/m 0 min 0 min 180 W/m 18,0 km/h (3 Bft) 97,87 %
22.06.2018 17:48 16,7 C 16,1 C 15,0 C 67 % 1023,9 hPa 0,0 l/m 0 min 0 min 224 W/m 18,0 km/h (3 Bft) 97,87 %
22.06.2018 17:50 16,6 C 16,7 C 15,6 C 68 % 1023,8 hPa 0,0 l/m 0 min 0 min 287 W/m 11,3 km/h (2 Bft) 100,00 %
22.06.2018 17:52 16,6 C 17,2 C 15,6 C 68 % 1023,8 hPa 0,0 l/m 2 min 0 min 387 W/m 11,3 km/h (2 Bft) 95,83 %
22.06.2018 17:54 16,7 C 18,3 C 16,1 C 70 % 1023,8 hPa 0,0 l/m 2 min 0 min 556 W/m 15,8 km/h (3 Bft) 97,87 %
22.06.2018 17:56 16,7 C 18,9 C 16,7 C 70 % 1023,9 hPa 0,0 l/m 2 min 0 min 546 W/m 9,0 km/h (2 Bft) 100,00 %
22.06.2018 17:58 16,9 C 18,3 C 16,1 C 70 % 1023,9 hPa 0,0 l/m 2 min 0 min 600 W/m 18,0 km/h (3 Bft) 97,87 %
22.06.2018 18:00 16,9 C 17,8 C 16,1 C 69 % 1023,9 hPa 0,0 l/m 0 min 0 min 179 W/m 13,5 km/h (3 Bft) 97,87 %
22.06.2018 18:02 16,9 C 17,2 C 16,1 C 69 % 1023,9 hPa 0,0 l/m 0 min 0 min 183 W/m 9,0 km/h (2 Bft) 95,74 %
22.06.2018 18:04 17,0 C 17,2 C 15,6 C 69 % 1023,9 hPa 0,0 l/m 0 min 0 min 222 W/m 13,5 km/h (3 Bft) 97,87 %
22.06.2018 18:08 16,9 C 16,7 C 15,6 C 69 % 1024,0 hPa 0,0 l/m 0 min 0 min 197 W/m 24,8 km/h (4 Bft) 97,85 %
22.06.2018 18:10 16,9 C 16,7 C 15,6 C 69 % 1023,9 hPa 0,0 l/m 0 min 0 min 131 W/m 18,0 km/h (3 Bft) 97,87 %
22.06.2018 18:12 16,8 C 16,1 C 15,0 C 68 % 1024,0 hPa 0,0 l/m 0 min 0 min 104 W/m 20,3 km/h (4 Bft) 93,62 %
22.06.2018 18:14 16,7 C 16,1 C 15,0 C 68 % 1024,0 hPa 0,0 l/m 0 min 0 min 100 W/m 22,5 km/h (4 Bft) 97,87 %
22.06.2018 18:16 16,6 C 15,6 C 15,0 C 67 % 1024,0 hPa 0,0 l/m 0 min 0 min 111 W/m 27,0 km/h (4 Bft) 97,83 %
22.06.2018 18:18 16,4 C 15,6 C 15,0 C 67 % 1023,9 hPa 0,0 l/m 0 min 0 min 133 W/m 15,8 km/h (3 Bft) 97,87 %
22.06.2018 18:20 16,3 C 15,6 C 15,0 C 67 % 1024,0 hPa 0,0 l/m 0 min 0 min 170 W/m 18,0 km/h (3 Bft) 95,74 %
22.06.2018 18:22 16,3 C 16,1 C 15,0 C 68 % 1024,0 hPa 0,0 l/m 0 min 0 min 201 W/m 31,5 km/h (5 Bft) 95,74 %
22.06.2018 18:24 16,2 C 16,1 C 15,0 C 68 % 1024,1 hPa 0,0 l/m 0 min 0 min 234 W/m 22,5 km/h (4 Bft) 97,87 %
22.06.2018 18:26 16,2 C 16,7 C 15,0 C 68 % 1024,0 hPa 0,0 l/m 0 min 0 min 234 W/m 15,8 km/h (3 Bft) 97,87 %
22.06.2018 18:28 16,2 C 17,2 C 15,6 C 69 % 1024,0 hPa 0,0 l/m 2 min 0 min 547 W/m 13,5 km/h (3 Bft) 97,87 %
22.06.2018 18:30 16,3 C 17,2 C 15,6 C 68 % 1024,0 hPa 0,0 l/m 2 min 0 min 358 W/m 20,3 km/h (4 Bft) 95,65 %
22.06.2018 18:32 16,3 C 17,8 C 15,6 C 68 % 1024,1 hPa 0,0 l/m 2 min 0 min 439 W/m 20,3 km/h (4 Bft) 97,87 %
22.06.2018 18:34 16,4 C 17,8 C 15,6 C 68 % 1024,0 hPa 0,0 l/m 2 min 0 min 458 W/m 22,5 km/h (4 Bft) 97,87 %
22.06.2018 18:36 16,4 C 17,2 C 15,6 C 67 % 1024,1 hPa 0,0 l/m 2 min 0 min 468 W/m 24,8 km/h (4 Bft) 98,11 %
22.06.2018 18:38 16,5 C 16,7 C 15,6 C 67 % 1024,1 hPa 0,0 l/m 0 min 0 min 170 W/m 18,0 km/h (3 Bft) 97,87 %
22.06.2018 18:40 16,5 C 16,7 C 15,0 C 67 % 1024,1 hPa 0,0 l/m 0 min 0 min 146 W/m 11,3 km/h (2 Bft) 97,83 %
22.06.2018 18:42 16,5 C 16,1 C 15,0 C 68 % 1024,1 hPa 0,0 l/m 0 min 0 min 129 W/m 15,8 km/h (3 Bft) 97,87 %
22.06.2018 18:44 16,4 C 16,1 C 15,0 C 68 % 1024,1 hPa 0,0 l/m 0 min 0 min 128 W/m 24,8 km/h (4 Bft) 100,00 %
22.06.2018 18:46 16,4 C 15,6 C 15,0 C 68 % 1024,2 hPa 0,0 l/m 0 min 0 min 133 W/m 18,0 km/h (3 Bft) 97,56 %
22.06.2018 18:48 16,3 C 15,6 C 15,0 C 68 % 1024,2 hPa 0,0 l/m 0 min 0 min 141 W/m 18,0 km/h (3 Bft) 100,00 %
22.06.2018 18:50 16,3 C 15,6 C 15,0 C 69 % 1024,1 hPa 0,0 l/m 0 min 0 min 154 W/m 18,0 km/h (3 Bft) 97,87 %
22.06.2018 18:52 16,2 C 15,6 C 15,0 C 69 % 1024,2 hPa 0,0 l/m 0 min 0 min 162 W/m 13,5 km/h (3 Bft) 100,00 %
22.06.2018 18:54 16,2 C 16,1 C 15,0 C 69 % 1024,1 hPa 0,0 l/m 0 min 0 min 165 W/m 11,3 km/h (2 Bft) 100,00 %
22.06.2018 18:56 16,2 C 16,1 C 15,0 C 69 % 1024,1 hPa 0,0 l/m 0 min 0 min 162 W/m 15,8 km/h (3 Bft) 100,00 %
22.06.2018 18:58 16,1 C 16,1 C 15,0 C 69 % 1024,1 hPa 0,0 l/m 0 min 0 min 164 W/m 13,5 km/h (3 Bft) 100,00 %
22.06.2018 19:00 16,1 C 16,1 C 15,0 C 69 % 1024,1 hPa 0,0 l/m 0 min 0 min 173 W/m 13,5 km/h (3 Bft) 100,00 %
22.06.2018 19:02 16,1 C 16,1 C 15,0 C 69 % 1024,1 hPa 0,0 l/m 0 min 0 min 177 W/m 11,3 km/h (2 Bft) 97,87 %
22.06.2018 19:04 16,1 C 16,1 C 15,0 C 70 % 1024,1 hPa 0,0 l/m 0 min 0 min 184 W/m 11,3 km/h (2 Bft) 100,00 %
22.06.2018 19:06 16,1 C 16,1 C 15,0 C 70 % 1024,1 hPa 0,0 l/m 0 min 0 min 193 W/m 15,8 km/h (3 Bft) 100,00 %
22.06.2018 19:08 16,1 C 16,1 C 15,0 C 69 % 1024,1 hPa 0,0 l/m 2 min 0 min 219 W/m 9,0 km/h (2 Bft) 100,00 %
22.06.2018 19:10 16,1 C 16,1 C 15,0 C 70 % 1024,1 hPa 0,0 l/m 2 min 0 min 206 W/m 22,5 km/h (4 Bft) 100,00 %
22.06.2018 19:12 16,1 C 16,1 C 15,0 C 69 % 1024,2 hPa 0,0 l/m 0 min 0 min 186 W/m 22,5 km/h (4 Bft) 100,00 %
22.06.2018 19:14 16,1 C 16,1 C 15,0 C 69 % 1024,1 hPa 0,0 l/m 2 min 0 min 194 W/m 9,0 km/h (2 Bft) 100,00 %
22.06.2018 19:16 16,1 C 16,1 C 15,0 C 69 % 1024,1 hPa 0,0 l/m 2 min 0 min 215 W/m 13,5 km/h (3 Bft) 100,00 %
22.06.2018 19:18 16,1 C 16,7 C 15,0 C 69 % 1024,1 hPa 0,0 l/m 2 min 0 min 344 W/m 15,8 km/h (3 Bft) 100,00 %
22.06.2018 19:20 16,1 C 16,7 C 15,0 C 69 % 1024,0 hPa 0,0 l/m 2 min 0 min 355 W/m 11,3 km/h (2 Bft) 100,00 %
22.06.2018 19:22 16,1 C 16,7 C 15,0 C 69 % 1024,1 hPa 0,0 l/m 2 min 0 min 231 W/m 20,3 km/h (4 Bft) 100,00 %
22.06.2018 19:24 16,2 C 16,1 C 15,0 C 69 % 1024,1 hPa 0,0 l/m 0 min 0 min 173 W/m 15,8 km/h (3 Bft) 100,00 %
22.06.2018 19:26 16,2 C 16,1 C 15,0 C 69 % 1024,1 hPa 0,0 l/m 0 min 0 min 121 W/m 20,3 km/h (4 Bft) 100,00 %
22.06.2018 19:28 16,2 C 16,7 C 15,0 C 69 % 1024,0 hPa 0,0 l/m 2 min 0 min 369 W/m 20,3 km/h (4 Bft) 100,00 %
22.06.2018 19:30 16,2 C 17,2 C 15,6 C 69 % 1024,1 hPa 0,0 l/m 2 min 0 min 322 W/m 13,5 km/h (3 Bft) 100,00 %
22.06.2018 19:32 16,2 C 17,2 C 15,6 C 69 % 1024,1 hPa 0,0 l/m 2 min 0 min 317 W/m 15,8 km/h (3 Bft) 97,62 %
22.06.2018 19:34 16,3 C 17,2 C 15,6 C 69 % 1024,2 hPa 0,0 l/m 2 min 0 min 312 W/m 18,0 km/h (3 Bft) 100,00 %
22.06.2018 19:36 16,4 C 16,7 C 15,6 C 69 % 1024,1 hPa 0,0 l/m 2 min 0 min 283 W/m 15,8 km/h (3 Bft) 97,87 %
22.06.2018 19:38 16,4 C 16,7 C 15,0 C 69 % 1024,2 hPa 0,0 l/m 0 min 0 min 111 W/m 20,3 km/h (4 Bft) 100,00 %
22.06.2018 19:40 16,3 C 16,1 C 15,0 C 68 % 1024,3 hPa 0,0 l/m 0 min 0 min 94 W/m 13,5 km/h (3 Bft) 97,87 %
22.06.2018 19:42 16,3 C 15,6 C 15,0 C 68 % 1024,2 hPa 0,0 l/m 0 min 0 min 94 W/m 13,5 km/h (3 Bft) 97,87 %
22.06.2018 19:44 16,3 C 15,6 C 15,0 C 68 % 1024,2 hPa 0,0 l/m 0 min 0 min 112 W/m 13,5 km/h (3 Bft) 97,87 %
22.06.2018 19:46 16,2 C 15,6 C 15,0 C 69 % 1024,2 hPa 0,0 l/m 0 min 0 min 122 W/m 9,0 km/h (2 Bft) 100,00 %
22.06.2018 19:48 16,2 C 15,6 C 15,0 C 69 % 1024,3 hPa 0,0 l/m 0 min 0 min 128 W/m 11,3 km/h (2 Bft) 100,00 %
22.06.2018 19:50 16,2 C 15,6 C 15,0 C 69 % 1024,3 hPa 0,0 l/m 0 min 0 min 111 W/m 18,0 km/h (3 Bft) 100,00 %
22.06.2018 19:52 16,1 C 15,6 C 15,0 C 69 % 1024,3 hPa 0,0 l/m 0 min 0 min 116 W/m 13,5 km/h (3 Bft) 96,23 %
22.06.2018 19:54 16,0 C 15,6 C 15,0 C 69 % 1024,3 hPa 0,0 l/m 0 min 0 min 125 W/m 20,3 km/h (4 Bft) 95,74 %
22.06.2018 19:56 15,9 C 15,6 C 15,0 C 69 % 1024,3 hPa 0,0 l/m 0 min 0 min 124 W/m 15,8 km/h (3 Bft) 100,00 %
22.06.2018 19:58 15,9 C 15,6 C 14,4 C 69 % 1024,4 hPa 0,0 l/m 2 min 0 min 138 W/m 11,3 km/h (2 Bft) 95,74 %
22.06.2018 20:00 15,9 C 15,6 C 15,0 C 70 % 1024,4 hPa 0,0 l/m 0 min 0 min 119 W/m 13,5 km/h (3 Bft) 93,62 %
22.06.2018 20:02 15,8 C 15,6 C 14,4 C 70 % 1024,3 hPa 0,0 l/m 0 min 0 min 115 W/m 15,8 km/h (3 Bft) 95,65 %
22.06.2018 20:04 15,8 C 15,6 C 14,4 C 70 % 1024,4 hPa 0,0 l/m 0 min 0 min 111 W/m 13,5 km/h (3 Bft) 93,62 %
22.06.2018 20:06 15,8 C 15,6 C 14,4 C 70 % 1024,5 hPa 0,0 l/m 0 min 0 min 111 W/m 18,0 km/h (3 Bft) 95,83 %
22.06.2018 20:08 15,8 C 15,6 C 14,4 C 70 % 1024,5 hPa 0,0 l/m 0 min 0 min 108 W/m 15,8 km/h (3 Bft) 95,74 %
22.06.2018 20:10 15,7 C 15,6 C 14,4 C 70 % 1024,5 hPa 0,0 l/m 0 min 0 min 108 W/m 15,8 km/h (3 Bft) 95,74 %
22.06.2018 20:12 15,7 C 15,6 C 14,4 C 70 % 1024,5 hPa 0,0 l/m 0 min 0 min 104 W/m 13,5 km/h (3 Bft) 95,74 %
22.06.2018 20:14 15,7 C 15,6 C 14,4 C 70 % 1024,5 hPa 0,0 l/m 0 min 0 min 108 W/m 13,5 km/h (3 Bft) 95,65 %
22.06.2018 20:16 15,7 C 15,6 C 14,4 C 71 % 1024,5 hPa 0,0 l/m 2 min 0 min 111 W/m 9,0 km/h (2 Bft) 95,74 %
22.06.2018 20:18 15,6 C 15,0 C 14,4 C 71 % 1024,5 hPa 0,0 l/m 2 min 0 min 109 W/m 15,8 km/h (3 Bft) 95,74 %
22.06.2018 20:20 15,6 C 15,0 C 14,4 C 72 % 1024,5 hPa 0,0 l/m 2 min 0 min 104 W/m 9,0 km/h (2 Bft) 97,87 %
22.06.2018 20:22 15,6 C 15,0 C 14,4 C 72 % 1024,5 hPa 0,0 l/m 2 min 0 min 101 W/m 13,5 km/h (3 Bft) 95,74 %
22.06.2018 20:24 15,6 C 15,0 C 14,4 C 72 % 1024,6 hPa 0,0 l/m 2 min 0 min 99 W/m 9,0 km/h (2 Bft) 95,65 %
22.06.2018 20:26 15,6 C 15,0 C 14,4 C 72 % 1024,6 hPa 0,0 l/m 0 min 0 min 88 W/m 11,3 km/h (2 Bft) 93,62 %
22.06.2018 20:28 15,5 C 15,0 C 14,4 C 72 % 1024,6 hPa 0,0 l/m 0 min 0 min 75 W/m 13,5 km/h (3 Bft) 95,74 %
22.06.2018 20:30 15,4 C 15,0 C 14,4 C 72 % 1024,6 hPa 0,0 l/m 0 min 0 min 67 W/m 9,0 km/h (2 Bft) 93,62 %
22.06.2018 20:32 15,4 C 14,4 C 14,4 C 72 % 1024,6 hPa 0,0 l/m 0 min 0 min 66 W/m 9,0 km/h (2 Bft) 93,62 %
22.06.2018 20:34 15,4 C 14,4 C 14,4 C 73 % 1024,6 hPa 0,0 l/m 0 min 0 min 71 W/m 13,5 km/h (3 Bft) 91,49 %
22.06.2018 20:36 15,3 C 14,4 C 13,9 C 73 % 1024,6 hPa 0,0 l/m 0 min 0 min 73 W/m 6,8 km/h (2 Bft) 91,67 %
22.06.2018 20:38 15,3 C 14,4 C 13,9 C 73 % 1024,5 hPa 0,0 l/m 0 min 0 min 69 W/m 9,0 km/h (2 Bft) 93,62 %
22.06.2018 20:40 15,3 C 14,4 C 13,9 C 74 % 1024,6 hPa 0,0 l/m 0 min 0 min 65 W/m 20,3 km/h (4 Bft) 93,48 %
22.06.2018 20:42 15,3 C 14,4 C 13,9 C 74 % 1024,6 hPa 0,0 l/m 0 min 0 min 63 W/m 15,8 km/h (3 Bft) 91,49 %
22.06.2018 20:44 15,2 C 14,4 C 13,9 C 73 % 1024,6 hPa 0,0 l/m 0 min 0 min 66 W/m 15,8 km/h (3 Bft) 93,62 %
22.06.2018 20:46 15,2 C 14,4 C 13,9 C 73 % 1024,6 hPa 0,0 l/m 2 min 0 min 74 W/m 18,0 km/h (3 Bft) 93,62 %
22.06.2018 20:48 15,1 C 14,4 C 13,9 C 73 % 1024,5 hPa 0,0 l/m 2 min 0 min 74 W/m 13,5 km/h (3 Bft) 91,49 %
22.06.2018 20:50 15,1 C 14,4 C 13,9 C 73 % 1024,6 hPa 0,0 l/m 2 min 0 min 71 W/m 18,0 km/h (3 Bft) 91,49 %
22.06.2018 20:52 15,1 C 14,4 C 13,9 C 73 % 1024,6 hPa 0,0 l/m 2 min 0 min 68 W/m 13,5 km/h (3 Bft) 95,65 %
22.06.2018 20:54 15,1 C 14,4 C 13,9 C 73 % 1024,6 hPa 0,0 l/m 0 min 0 min 58 W/m 15,8 km/h (3 Bft) 93,62 %
22.06.2018 20:56 15,0 C 14,4 C 13,9 C 73 % 1024,5 hPa 0,0 l/m 0 min 0 min 43 W/m 11,3 km/h (2 Bft) 95,74 %
22.06.2018 20:58 15,0 C 14,4 C 13,9 C 73 % 1024,5 hPa 0,0 l/m 0 min 0 min 30 W/m 22,5 km/h (4 Bft) 97,87 %
22.06.2018 21:00 14,9 C 14,4 C 13,9 C 73 % 1024,5 hPa 0,0 l/m 0 min 0 min 23 W/m 13,5 km/h (3 Bft) 97,87 %
22.06.2018 21:02 14,9 C 14,4 C 13,9 C 73 % 1024,5 hPa 0,0 l/m 0 min 0 min 21 W/m 11,3 km/h (2 Bft) 97,87 %
22.06.2018 21:04 14,9 C 13,9 C 13,9 C 73 % 1024,5 hPa 0,0 l/m 0 min 0 min 22 W/m 6,8 km/h (2 Bft) 97,83 %
22.06.2018 21:06 14,9 C 13,9 C 13,9 C 73 % 1024,5 hPa 0,0 l/m 0 min 0 min 28 W/m 4,5 km/h (1 Bft) 95,83 %
22.06.2018 21:08 14,8 C 13,9 C 13,9 C 74 % 1024,4 hPa 0,0 l/m 0 min 0 min 32 W/m 6,8 km/h (2 Bft) 93,62 %
22.06.2018 21:10 14,8 C 13,9 C 13,9 C 74 % 1024,5 hPa 0,0 l/m 0 min 0 min 30 W/m 9,0 km/h (2 Bft) 97,87 %
22.06.2018 21:12 14,8 C 13,9 C 13,9 C 74 % 1024,6 hPa 0,0 l/m 0 min 0 min 24 W/m 6,8 km/h (2 Bft) 97,87 %
22.06.2018 21:14 14,8 C 13,9 C 13,9 C 74 % 1024,6 hPa 0,0 l/m 0 min 0 min 19 W/m 15,8 km/h (3 Bft) 97,83 %
22.06.2018 21:16 14,7 C 13,9 C 13,9 C 74 % 1024,6 hPa 0,0 l/m 0 min 0 min 17 W/m 11,3 km/h (2 Bft) 95,74 %
22.06.2018 21:18 14,7 C 13,9 C 13,3 C 74 % 1024,6 hPa 0,0 l/m 0 min 0 min 18 W/m 13,5 km/h (3 Bft) 100,00 %
22.06.2018 21:20 14,6 C 13,3 C 13,3 C 73 % 1024,6 hPa 0,0 l/m 0 min 0 min 18 W/m 11,3 km/h (2 Bft) 100,00 %
22.06.2018 21:22 14,5 C 13,3 C 13,3 C 73 % 1024,6 hPa 0,0 l/m 0 min 0 min 18 W/m 11,3 km/h (2 Bft) 100,00 %
22.06.2018 21:24 14,4 C 13,3 C 13,3 C 73 % 1024,7 hPa 0,0 l/m 0 min 0 min 18 W/m 11,3 km/h (2 Bft) 97,87 %
22.06.2018 21:26 14,4 C 13,3 C 13,3 C 74 % 1024,7 hPa 0,0 l/m 0 min 0 min 16 W/m 13,5 km/h (3 Bft) 100,00 %
22.06.2018 21:28 14,4 C 13,3 C 13,3 C 74 % 1024,7 hPa 0,0 l/m 0 min 0 min 17 W/m 13,5 km/h (3 Bft) 100,00 %
22.06.2018 21:30 14,3 C 13,3 C 13,3 C 74 % 1024,7 hPa 0,0 l/m 0 min 0 min 18 W/m 18,0 km/h (3 Bft) 100,00 %
22.06.2018 21:32 14,2 C 13,3 C 13,3 C 75 % 1024,7 hPa 0,0 l/m 0 min 0 min 16 W/m 13,5 km/h (3 Bft) 97,87 %
22.06.2018 21:34 14,2 C 13,3 C 13,3 C 75 % 1024,7 hPa 0,0 l/m 0 min 0 min 13 W/m 15,8 km/h (3 Bft) 97,87 %
22.06.2018 21:36 14,2 C 13,3 C 13,3 C 75 % 1024,7 hPa 0,0 l/m 0 min 0 min 10 W/m 18,0 km/h (3 Bft) 97,87 %
22.06.2018 21:38 14,2 C 13,3 C 13,3 C 75 % 1024,7 hPa 0,0 l/m 0 min 0 min 8 W/m 11,3 km/h (2 Bft) 100,00 %
22.06.2018 21:40 14,2 C 13,3 C 13,3 C 75 % 1024,8 hPa 0,0 l/m 0 min 0 min 7 W/m 11,3 km/h (2 Bft) 100,00 %
22.06.2018 21:42 14,2 C 13,3 C 13,3 C 75 % 1024,9 hPa 0,0 l/m 0 min 0 min 6 W/m 11,3 km/h (2 Bft) 100,00 %
22.06.2018 21:44 14,1 C 13,3 C 12,8 C 75 % 1024,9 hPa 0,0 l/m 0 min 0 min 5 W/m 9,0 km/h (2 Bft) 95,74 %
22.06.2018 21:46 14,1 C 13,3 C 12,8 C 75 % 1025,0 hPa 0,0 l/m 0 min 0 min 5 W/m 6,8 km/h (2 Bft) 100,00 %
22.06.2018 21:48 14,1 C 13,3 C 12,8 C 75 % 1025,0 hPa 0,0 l/m 0 min 0 min 3 W/m 6,8 km/h (2 Bft) 100,00 %
22.06.2018 21:50 14,0 C 13,3 C 12,8 C 76 % 1025,0 hPa 0,0 l/m 0 min 0 min 0 W/m 9,0 km/h (2 Bft) 100,00 %
22.06.2018 21:52 14,0 C 13,3 C 12,8 C 76 % 1025,0 hPa 0,0 l/m 0 min 0 min 0 W/m 18,0 km/h (3 Bft) 97,87 %
22.06.2018 21:54 13,9 C 13,3 C 12,8 C 76 % 1025,0 hPa 0,0 l/m 0 min 0 min 0 W/m 6,8 km/h (2 Bft) 100,00 %
22.06.2018 21:56 13,9 C 13,3 C 13,3 C 76 % 1025,0 hPa 0,0 l/m 0 min 0 min 0 W/m 6,8 km/h (2 Bft) 100,00 %
22.06.2018 21:58 13,9 C 13,3 C 13,3 C 76 % 1024,9 hPa 0,0 l/m 0 min 0 min 0 W/m 13,5 km/h (3 Bft) 100,00 %
22.06.2018 22:00 13,9 C 13,3 C 12,8 C 76 % 1025,0 hPa 0,0 l/m 0 min 0 min 0 W/m 9,0 km/h (2 Bft) 100,00 %
22.06.2018 22:02 13,9 C 13,3 C 12,8 C 76 % 1025,1 hPa 0,0 l/m 0 min 0 min 0 W/m 11,3 km/h (2 Bft) 100,00 %
22.06.2018 22:04 13,9 C 13,3 C 12,8 C 76 % 1025,0 hPa 0,0 l/m 0 min 0 min 0 W/m 9,0 km/h (2 Bft) 100,00 %
22.06.2018 22:06 13,8 C 13,3 C 12,8 C 76 % 1025,1 hPa 0,0 l/m 0 min 0 min 0 W/m 6,8 km/h (2 Bft) 100,00 %
22.06.2018 22:08 13,8 C 13,3 C 12,8 C 77 % 1025,0 hPa 0,0 l/m 0 min 0 min 0 W/m 6,8 km/h (2 Bft) 97,87 %
22.06.2018 22:10 13,8 C 13,3 C 12,8 C 77 % 1025,1 hPa 0,0 l/m 0 min 0 min 0 W/m 11,3 km/h (2 Bft) 100,00 %
22.06.2018 22:12 13,8 C 13,3 C 12,8 C 77 % 1025,1 hPa 0,0 l/m 0 min 0 min 0 W/m 11,3 km/h (2 Bft) 97,87 %
22.06.2018 22:14 13,8 C 13,3 C 12,8 C 77 % 1025,0 hPa 0,0 l/m 0 min 0 min 0 W/m 4,5 km/h (1 Bft) 100,00 %
22.06.2018 22:16 13,8 C 13,3 C 12,8 C 77 % 1025,1 hPa 0,0 l/m 0 min 0 min 0 W/m 15,8 km/h (3 Bft) 100,00 %
22.06.2018 22:18 13,8 C 13,3 C 12,8 C 77 % 1025,1 hPa 0,0 l/m 0 min 0 min 0 W/m 9,0 km/h (2 Bft) 95,74 %
22.06.2018 22:20 13,8 C 13,3 C 12,8 C 77 % 1025,1 hPa 0,0 l/m 0 min 0 min 0 W/m 11,3 km/h (2 Bft) 100,00 %
22.06.2018 22:22 13,8 C 13,3 C 12,8 C 77 % 1025,2 hPa 0,0 l/m 0 min 0 min 0 W/m 9,0 km/h (2 Bft) 100,00 %
22.06.2018 22:24 13,8 C 13,3 C 12,8 C 77 % 1025,1 hPa 0,0 l/m 0 min 0 min 0 W/m 13,5 km/h (3 Bft) 100,00 %
22.06.2018 22:26 13,7 C 12,8 C 12,8 C 77 % 1025,1 hPa 0,0 l/m 0 min 0 min 0 W/m 9,0 km/h (2 Bft) 97,83 %
22.06.2018 22:28 13,7 C 12,8 C 12,8 C 77 % 1025,1 hPa 0,0 l/m 0 min 0 min 0 W/m 9,0 km/h (2 Bft) 100,00 %
22.06.2018 22:30 13,7 C 12,8 C 12,8 C 77 % 1025,2 hPa 0,0 l/m 0 min 0 min 0 W/m 11,3 km/h (2 Bft) 100,00 %
22.06.2018 22:32 13,7 C 12,8 C 12,8 C 77 % 1025,1 hPa 0,0 l/m 0 min 0 min 0 W/m 9,0 km/h (2 Bft) 97,87 %
22.06.2018 22:34 13,7 C 12,8 C 12,8 C 77 % 1025,2 hPa 0,0 l/m 0 min 0 min 0 W/m 11,3 km/h (2 Bft) 100,00 %
22.06.2018 22:36 13,6 C 12,8 C 12,8 C 77 % 1025,2 hPa 0,0 l/m 0 min 0 min 0 W/m 6,8 km/h (2 Bft) 100,00 %
22.06.2018 22:38 13,6 C 12,8 C 12,8 C 77 % 1025,2 hPa 0,0 l/m 0 min 0 min 0 W/m 6,8 km/h (2 Bft) 95,65 %
22.06.2018 22:40 13,6 C 12,8 C 12,8 C 77 % 1025,2 hPa 0,0 l/m 0 min 0 min 0 W/m 6,8 km/h (2 Bft) 100,00 %
22.06.2018 22:42 13,6 C 12,8 C 12,8 C 77 % 1025,3 hPa 0,0 l/m 0 min 0 min 0 W/m 4,5 km/h (1 Bft) 100,00 %
22.06.2018 22:44 13,6 C 12,8 C 12,8 C 77 % 1025,3 hPa 0,0 l/m 0 min 0 min 0 W/m 6,8 km/h (2 Bft) 100,00 %
22.06.2018 22:46 13,5 C 12,8 C 12,8 C 77 % 1025,3 hPa 0,0 l/m 0 min 0 min 0 W/m 6,8 km/h (2 Bft) 100,00 %
22.06.2018 22:48 13,5 C 12,8 C 12,8 C 77 % 1025,3 hPa 0,0 l/m 0 min 0 min 0 W/m 6,8 km/h (2 Bft) 97,83 %
22.06.2018 22:50 13,4 C 12,8 C 12,8 C 77 % 1025,3 hPa 0,0 l/m 0 min 0 min 0 W/m 9,0 km/h (2 Bft) 100,00 %
22.06.2018 22:52 13,4 C 12,8 C 12,8 C 77 % 1025,3 hPa 0,0 l/m 0 min 0 min 0 W/m 11,3 km/h (2 Bft) 100,00 %
22.06.2018 22:54 13,4 C 12,8 C 12,8 C 78 % 1025,3 hPa 0,0 l/m 0 min 0 min 0 W/m 13,5 km/h (3 Bft) 97,87 %
22.06.2018 22:56 13,4 C 12,8 C 12,8 C 78 % 1025,3 hPa 0,0 l/m 0 min 0 min 0 W/m 9,0 km/h (2 Bft) 93,62 %
22.06.2018 22:58 13,4 C 12,8 C 12,8 C 78 % 1025,4 hPa 0,0 l/m 0 min 0 min 0 W/m 11,3 km/h (2 Bft) 97,87 %
22.06.2018 23:00 13,3 C 12,8 C 12,2 C 78 % 1025,4 hPa 0,0 l/m 0 min 0 min 0 W/m 6,8 km/h (2 Bft) 97,83 %
22.06.2018 23:02 13,3 C 12,2 C 12,2 C 78 % 1025,4 hPa 0,0 l/m 0 min 0 min 0 W/m 9,0 km/h (2 Bft) 97,87 %
22.06.2018 23:04 13,3 C 12,2 C 12,2 C 78 % 1025,3 hPa 0,0 l/m 0 min 0 min 0 W/m 11,3 km/h (2 Bft) 97,87 %
22.06.2018 23:06 13,3 C 12,2 C 12,2 C 78 % 1025,4 hPa 0,0 l/m 0 min 0 min 0 W/m 2,3 km/h (1 Bft) 97,87 %
22.06.2018 23:08 13,2 C 12,2 C 12,2 C 78 % 1025,4 hPa 0,0 l/m 0 min 0 min 0 W/m 13,5 km/h (3 Bft) 95,74 %
22.06.2018 23:10 13,2 C 12,2 C 12,2 C 78 % 1025,4 hPa 0,0 l/m 0 min 0 min 0 W/m 4,5 km/h (1 Bft) 97,87 %
22.06.2018 23:12 13,2 C 12,2 C 12,2 C 78 % 1025,4 hPa 0,0 l/m 0 min 0 min 0 W/m 11,3 km/h (2 Bft) 97,83 %
22.06.2018 23:14 13,1 C 12,2 C 12,2 C 78 % 1025,4 hPa 0,0 l/m 0 min 0 min 0 W/m 4,5 km/h (1 Bft) 97,87 %
22.06.2018 23:16 13,1 C 11,7 C 12,2 C 78 % 1025,4 hPa 0,0 l/m 0 min 0 min 0 W/m 9,0 km/h (2 Bft) 97,87 %
22.06.2018 23:18 13,0 C 11,7 C 12,2 C 78 % 1025,4 hPa 0,0 l/m 0 min 0 min 0 W/m 9,0 km/h (2 Bft) 100,00 %
22.06.2018 23:20 13,0 C 11,7 C 12,2 C 79 % 1025,4 hPa 0,0 l/m 0 min 0 min 0 W/m 4,5 km/h (1 Bft) 97,87 %
22.06.2018 23:22 13,0 C 11,7 C 12,2 C 79 % 1025,4 hPa 0,0 l/m 0 min 0 min 0 W/m 4,5 km/h (1 Bft) 97,87 %
22.06.2018 23:24 12,9 C 11,7 C 11,7 C 79 % 1025,4 hPa 0,0 l/m 0 min 0 min 0 W/m 6,8 km/h (2 Bft) 97,83 %
22.06.2018 23:26 12,9 C 11,7 C 11,7 C 79 % 1025,4 hPa 0,0 l/m 0 min 0 min 0 W/m 6,8 km/h (2 Bft) 95,74 %
22.06.2018 23:28 12,9 C 11,7 C 11,7 C 79 % 1025,4 hPa 0,0 l/m 0 min 0 min 0 W/m 4,5 km/h (1 Bft) 95,74 %
22.06.2018 23:30 12,8 C 11,7 C 11,7 C 79 % 1025,5 hPa 0,0 l/m 0 min 0 min 0 W/m 6,8 km/h (2 Bft) 95,74 %
22.06.2018 23:32 12,8 C 11,7 C 11,7 C 79 % 1025,4 hPa 0,0 l/m 0 min 0 min 0 W/m 6,8 km/h (2 Bft) 95,74 %
22.06.2018 23:34 12,8 C 11,7 C 11,7 C 80 % 1025,5 hPa 0,0 l/m 0 min 0 min 0 W/m 2,3 km/h (1 Bft) 95,65 %
22.06.2018 23:36 12,7 C 11,7 C 11,7 C 80 % 1025,5 hPa 0,0 l/m 0 min 0 min 0 W/m 4,5 km/h (1 Bft) 95,74 %
22.06.2018 23:38 12,7 C 11,7 C 11,7 C 80 % 1025,5 hPa 0,0 l/m 0 min 0 min 0 W/m 4,5 km/h (1 Bft) 93,62 %
22.06.2018 23:40 12,7 C 11,7 C 11,7 C 80 % 1025,5 hPa 0,0 l/m 0 min 0 min 0 W/m 6,8 km/h (2 Bft) 97,87 %
22.06.2018 23:42 12,7 C 11,7 C 11,7 C 80 % 1025,5 hPa 0,0 l/m 0 min 0 min 0 W/m 4,5 km/h (1 Bft) 95,74 %
22.06.2018 23:44 12,6 C 11,7 C 11,7 C 80 % 1025,5 hPa 0,0 l/m 0 min 0 min 0 W/m 6,8 km/h (2 Bft) 97,87 %
22.06.2018 23:46 12,6 C 11,7 C 11,7 C 81 % 1025,5 hPa 0,0 l/m 0 min 0 min 0 W/m 4,5 km/h (1 Bft) 97,87 %
22.06.2018 23:48 12,6 C 11,7 C 11,7 C 81 % 1025,5 hPa 0,0 l/m 0 min 0 min 0 W/m 4,5 km/h (1 Bft) 97,83 %
22.06.2018 23:50 12,6 C 11,7 C 11,7 C 81 % 1025,5 hPa 0,0 l/m 0 min 0 min 0 W/m 2,3 km/h (1 Bft) 97,87 %
22.06.2018 23:52 12,6 C 11,7 C 11,7 C 81 % 1025,5 hPa 0,0 l/m 0 min 0 min 0 W/m 4,5 km/h (1 Bft) 97,92 %
22.06.2018 23:54 12,6 C 11,7 C 11,7 C 81 % 1025,5 hPa 0,0 l/m 0 min 0 min 0 W/m 4,5 km/h (1 Bft) 95,74 %
22.06.2018 23:56 12,5 C 11,7 C 11,7 C 81 % 1025,6 hPa 0,0 l/m 0 min 0 min 0 W/m 4,5 km/h (1 Bft) 95,74 %
22.06.2018 23:58 12,5 C 11,7 C 11,7 C 81 % 1025,6 hPa 0,0 l/m 0 min 0 min 0 W/m 6,8 km/h (2 Bft) 95,65 %
_ Min-Zeit 06:04 06:00 04:30 16:56 06:36 - - - - 00:52 04:42
Minimum _ 9,7 C 8,9 C 9,4 C 64 % 1021,4 hPa - - - - 2,3 km/h (1 Bft) 91,49 %
_ Max-Zeit 16:44 12:12 16:40 06:16 23:56 00:00 12:08 12:22 12:12 18:22 00:10
Maximum _ 17,9 C 22,8 C 17,2 C 85 % 1025,6 hPa 0,0 l/m 4 min 2 min 1100 W/m 31,5 km/h
N (5 Bft)
100,00 %
Durchschnitt _ 13,4 C 13,4 C 12,6 C 76 % 1023,2 hPa #0,0 l/m #3:28 h #58 min. 236 W/m 11,5 km/h (2 Bft) 97,55 %
© 2018 W. Hausmann